| time (UTC) | temp F | wind direction | speed knots | gust knots | rain 1hr in | rain 24hr in | rain mn in | humidity % | barometer mb |
| 20260503020420 | 48 | 284 | 7.0 | 12.2 | 0.00 | 0.00 | 0.00 | 54 | 1014.8 |
| 20260503020321 | 48 | 329 | 7.0 | 12.2 | 0.00 | 0.00 | 0.00 | 54 | 1014.8 |
| 20260503020220 | 48 | 293 | 7.0 | 13.0 | 0.00 | 0.00 | 0.00 | 54 | 1014.8 |
| 20260503020122 | 48 | 305 | 7.8 | 13.0 | 0.00 | 0.00 | 0.00 | 54 | 1014.8 |
| 20260503020021 | 48 | 319 | 7.8 | 13.0 | 0.00 | 0.00 | 0.00 | 54 | 1014.8 |
| 20260503015920 | 48 | 305 | 7.8 | 13.0 | 0.00 | 0.00 | 0.00 | 54 | 1014.7 |
| 20260503015820 | 48 | 294 | 7.8 | 13.0 | 0.00 | 0.00 | 0.00 | 54 | 1014.8 |
| 20260503015720 | 48 | 290 | 7.8 | 13.0 | 0.00 | 0.00 | 0.00 | 54 | 1014.7 |
| 20260503015620 | 48 | 338 | 7.8 | 13.0 | 0.00 | 0.00 | 0.00 | 54 | 1014.7 |
| 20260503015521 | 48 | 331 | 7.8 | 13.0 | 0.00 | 0.00 | 0.00 | 54 | 1014.7 |
| 20260503015421 | 48 | 333 | 7.8 | 13.0 | 0.00 | 0.00 | 0.00 | 54 | 1014.6 |
| 20260503015321 | 48 | 317 | 7.8 | 13.0 | 0.00 | 0.00 | 0.00 | 54 | 1014.6 |
| 20260503015220 | 48 | 317 | 7.8 | 13.0 | 0.00 | 0.00 | 0.00 | 54 | 1014.6 |
| 20260503015120 | 48 | 317 | 7.8 | 12.2 | 0.00 | 0.00 | 0.00 | 54 | 1014.6 |
| 20260503015022 | 48 | 286 | 7.8 | 12.2 | 0.00 | 0.00 | 0.00 | 54 | 1014.6 |
| 20260503014922 | 48 | 300 | 7.8 | 12.2 | 0.00 | 0.00 | 0.00 | 53 | 1014.6 |
| 20260503014821 | 48 | 323 | 7.8 | 12.2 | 0.00 | 0.00 | 0.00 | 54 | 1014.5 |
| 20260503014720 | 48 | 341 | 7.8 | 12.2 | 0.00 | 0.00 | 0.00 | 54 | 1014.6 |
| 20260503014620 | 48 | 310 | 7.0 | 12.2 | 0.00 | 0.00 | 0.00 | 54 | 1014.5 |
| 20260503014521 | 49 | 300 | 7.0 | 12.2 | 0.00 | 0.00 | 0.00 | 54 | 1014.5 |
| 20260503014420 | 49 | 285 | 7.8 | 13.9 | 0.00 | 0.00 | 0.00 | 54 | 1014.6 |
| 20260503014322 | 48 | 306 | 7.8 | 13.9 | 0.00 | 0.00 | 0.00 | 53 | 1014.6 |
| 20260503014222 | 49 | 283 | 7.8 | 13.9 | 0.00 | 0.00 | 0.00 | 53 | 1014.5 |
| 20260503014117 | 49 | 286 | 7.8 | 13.9 | 0.00 | 0.00 | 0.00 | 54 | 1014.6 |
| 20260503014017 | 49 | 345 | 7.8 | 13.9 | 0.00 | 0.00 | 0.00 | 54 | 1014.5 |
| 20260503013917 | 49 | 297 | 8.7 | 13.9 | 0.00 | 0.00 | 0.00 | 54 | 1014.6 |
| 20260503013817 | 49 | 289 | 8.7 | 13.9 | 0.00 | 0.00 | 0.00 | 54 | 1014.5 |
| 20260503013716 | 49 | 302 | 8.7 | 13.9 | 0.00 | 0.00 | 0.00 | 54 | 1014.4 |
| 20260503013616 | 49 | 322 | 8.7 | 13.9 | 0.00 | 0.00 | 0.00 | 53 | 1014.4 |
| 20260503013517 | 49 | 313 | 9.6 | 14.8 | 0.00 | 0.00 | 0.00 | 53 | 1014.3 |
| 20260503013416 | 49 | 295 | 8.7 | 14.8 | 0.00 | 0.00 | 0.00 | 53 | 1014.3 |
| 20260503013316 | 49 | 296 | 9.6 | 14.8 | 0.00 | 0.00 | 0.00 | 53 | 1014.3 |
| 20260503013216 | 49 | 288 | 9.6 | 16.5 | 0.00 | 0.00 | 0.00 | 53 | 1014.3 |
| 20260503013117 | 49 | 321 | 10.4 | 16.5 | 0.00 | 0.00 | 0.00 | 53 | 1014.3 |
| 20260503013016 | 49 | 321 | 10.4 | 16.5 | 0.00 | 0.00 | 0.00 | 53 | 1014.3 |
| 20260503012917 | 49 | 313 | 10.4 | 16.5 | 0.00 | 0.00 | 0.00 | 53 | 1014.3 |
| 20260503012817 | 49 | 319 | 10.4 | 16.5 | 0.00 | 0.00 | 0.00 | 52 | 1014.2 |
| 20260503012718 | 49 | 302 | 10.4 | 16.5 | 0.00 | 0.00 | 0.00 | 53 | 1014.3 |
| 20260503012616 | 49 | 334 | 10.4 | 16.5 | 0.00 | 0.00 | 0.00 | 52 | 1014.2 |
| 20260503012516 | 49 | 317 | 10.4 | 16.5 | 0.00 | 0.00 | 0.00 | 53 | 1014.1 |
| 20260503012417 | 49 | 297 | 10.4 | 16.5 | 0.00 | 0.00 | 0.00 | 53 | 1014.1 |
| 20260503012316 | 49 | 310 | 10.4 | 16.5 | 0.00 | 0.00 | 0.00 | 53 | 1014.1 |
| 20260503012217 | 49 | 328 | 10.4 | 14.8 | 0.00 | 0.00 | 0.00 | 53 | 1014.0 |
| 20260503012116 | 49 | 313 | 10.4 | 14.8 | 0.00 | 0.00 | 0.00 | 53 | 1014.1 |
| 20260503012017 | 49 | 312 | 9.6 | 14.8 | 0.00 | 0.00 | 0.00 | 53 | 1014.0 |
| 20260503011916 | 49 | 312 | 9.6 | 14.8 | 0.00 | 0.00 | 0.00 | 54 | 1014.0 |
| 20260503011816 | 49 | 300 | 9.6 | 14.8 | 0.00 | 0.00 | 0.00 | 54 | 1014.0 |
| 20260503011717 | 49 | 317 | 8.7 | 14.8 | 0.00 | 0.00 | 0.00 | 54 | 1014.0 |
| 20260503011617 | 49 | 302 | 8.7 | 14.8 | 0.00 | 0.00 | 0.00 | 54 | 1014.0 |
| 20260503011509 | 49 | 275 | 7.8 | 14.8 | 0.00 | 0.00 | 0.00 | 55 | 1014.1 |
| 20260503011410 | 49 | 310 | 7.8 | 14.8 | 0.00 | 0.00 | 0.00 | 55 | 1014.0 |
| 20260503011310 | 49 | 313 | 7.8 | 14.8 | 0.00 | 0.00 | 0.00 | 55 | 1014.0 |
| 20260503011209 | 49 | 325 | 7.8 | 13.0 | 0.00 | 0.00 | 0.00 | 55 | 1014.0 |
| 20260503011108 | 49 | 325 | 7.8 | 12.2 | 0.00 | 0.00 | 0.00 | 55 | 1014.0 |
| 20260503011008 | 49 | 296 | 7.8 | 12.2 | 0.00 | 0.00 | 0.00 | 55 | 1014.0 |
| 20260503010908 | 49 | 286 | 7.8 | 12.2 | 0.00 | 0.00 | 0.00 | 55 | 1014.0 |
| 20260503010809 | 49 | 267 | 7.8 | 12.2 | 0.00 | 0.00 | 0.00 | 55 | 1014.0 |
| 20260503010708 | 49 | 328 | 7.8 | 12.2 | 0.00 | 0.00 | 0.00 | 56 | 1014.0 |
| 20260503010609 | 49 | 309 | 7.8 | 12.2 | 0.00 | 0.00 | 0.00 | 55 | 1014.0 |
| 20260503010508 | 49 | 319 | 7.8 | 12.2 | 0.00 | 0.00 | 0.00 | 55 | 1013.9 |
| 20260503010408 | 49 | 318 | 7.8 | 12.2 | 0.00 | 0.00 | 0.00 | 55 | 1014.0 |
| 20260503010310 | 49 | 302 | 8.7 | 12.2 | 0.00 | 0.00 | 0.00 | 55 | 1014.0 |
| 20260503010208 | 49 | 317 | 7.8 | 12.2 | 0.00 | 0.00 | 0.00 | 55 | 1014.0 |
| 20260503010109 | 49 | 289 | 7.8 | 12.2 | 0.00 | 0.00 | 0.00 | 55 | 1013.9 |
| 20260503010008 | 49 | 290 | 7.8 | 12.2 | 0.00 | 0.00 | 0.00 | 55 | 1013.9 |
| 20260503005908 | 49 | 298 | 7.8 | 10.4 | 0.00 | 0.00 | 0.00 | 55 | 1014.0 |
| 20260503005808 | 49 | 305 | 7.0 | 10.4 | 0.00 | 0.00 | 0.00 | 55 | 1013.8 |
| 20260503005709 | 49 | 309 | 7.0 | 10.4 | 0.00 | 0.00 | 0.00 | 55 | 1013.8 |
| 20260503005609 | 49 | 281 | 7.0 | 10.4 | 0.00 | 0.00 | 0.00 | 55 | 1013.9 |
| 20260503005508 | 49 | 325 | 7.0 | 10.4 | 0.00 | 0.00 | 0.00 | 55 | 1013.8 |
| 20260503005408 | 49 | 331 | 6.1 | 10.4 | 0.00 | 0.00 | 0.00 | 55 | 1013.8 |
| 20260503005310 | 49 | 311 | 6.1 | 10.4 | 0.00 | 0.00 | 0.00 | 55 | 1013.8 |
| 20260503005208 | 49 | 308 | 6.1 | 10.4 | 0.00 | 0.00 | 0.00 | 55 | 1013.8 |
| 20260503005109 | 49 | 332 | 6.1 | 10.4 | 0.00 | 0.00 | 0.00 | 55 | 1013.8 |
| 20260503005010 | 49 | 274 | 6.1 | 10.4 | 0.00 | 0.00 | 0.00 | 55 | 1013.7 |
| 20260503004908 | 49 | 300 | 6.1 | 10.4 | 0.00 | 0.00 | 0.00 | 55 | 1013.7 |
| 20260503004809 | 50 | 324 | 6.1 | 10.4 | 0.00 | 0.00 | 0.00 | 55 | 1013.9 |
| 20260503004708 | 50 | 311 | 6.1 | 10.4 | 0.00 | 0.00 | 0.00 | 55 | 1013.7 |
| 20260503004608 | 50 | 319 | 6.1 | 9.6 | 0.00 | 0.00 | 0.00 | 55 | 1013.7 |
| 20260503004509 | 50 | 315 | 6.1 | 9.6 | 0.00 | 0.00 | 0.00 | 55 | 1013.8 |
| 20260503004410 | 50 | 297 | 6.1 | 9.6 | 0.00 | 0.00 | 0.00 | 55 | 1013.7 |
| 20260503004309 | 50 | 304 | 6.1 | 9.6 | 0.00 | 0.00 | 0.00 | 55 | 1013.5 |
| 20260503004204 | 50 | 327 | 6.1 | 9.6 | 0.00 | 0.00 | 0.00 | 55 | 1013.7 |
| 20260503004105 | 50 | 296 | 7.0 | 8.7 | 0.00 | 0.00 | 0.00 | 55 | 1013.7 |
| 20260503004004 | 50 | 304 | 7.0 | 9.6 | 0.00 | 0.00 | 0.00 | 55 | 1013.5 |
| 20260503003904 | 50 | 292 | 7.0 | 9.6 | 0.00 | 0.00 | 0.00 | 55 | 1013.5 |
| 20260503003805 | 50 | 298 | 7.0 | 11.3 | 0.00 | 0.00 | 0.00 | 54 | 1013.7 |
| 20260503003705 | 50 | 304 | 7.0 | 13.0 | 0.00 | 0.00 | 0.00 | 54 | 1013.7 |
| 20260503003606 | 50 | 313 | 7.0 | 13.0 | 0.00 | 0.00 | 0.00 | 54 | 1013.7 |
| 20260503003502 | 50 | 292 | 7.8 | 13.0 | 0.00 | 0.00 | 0.00 | 54 | 1013.5 |
| 20260503003402 | 50 | 286 | 7.8 | 13.0 | 0.00 | 0.00 | 0.00 | 54 | 1013.5 |
| 20260503003302 | 50 | 308 | 7.8 | 13.0 | 0.00 | 0.00 | 0.00 | 53 | 1013.4 |
| 20260503003203 | 50 | 275 | 7.8 | 13.0 | 0.00 | 0.00 | 0.00 | 53 | 1013.5 |
| 20260503003103 | 50 | 313 | 7.8 | 13.0 | 0.00 | 0.00 | 0.00 | 54 | 1013.4 |
| 20260503003002 | 50 | 309 | 7.8 | 13.0 | 0.00 | 0.00 | 0.00 | 53 | 1013.4 |
| 20260503002902 | 51 | 309 | 7.8 | 13.0 | 0.00 | 0.00 | 0.00 | 53 | 1013.4 |
| 20260503002804 | 51 | 301 | 7.8 | 13.0 | 0.00 | 0.00 | 0.00 | 53 | 1013.3 |
| 20260503002703 | 51 | 319 | 7.8 | 11.3 | 0.00 | 0.00 | 0.00 | 53 | 1013.3 |
| 20260503002602 | 51 | 298 | 7.8 | 11.3 | 0.00 | 0.00 | 0.00 | 53 | 1013.3 |
| 20260503002456 | 51 | 317 | 7.8 | 11.3 | 0.00 | 0.00 | 0.00 | 53 | 1013.3 |
| 20260503002358 | 51 | 306 | 7.8 | 11.3 | 0.00 | 0.00 | 0.00 | 53 | 1013.3 |
| 20260503002259 | 51 | 315 | 7.8 | 12.2 | 0.00 | 0.00 | 0.00 | 53 | 1013.2 |
| 20260503002157 | 51 | 327 | 7.8 | 12.2 | 0.00 | 0.00 | 0.00 | 53 | 1013.3 |
| 20260503002056 | 51 | 307 | 7.8 | 12.2 | 0.00 | 0.00 | 0.00 | 53 | 1013.3 |
| 20260503001954 | 51 | 318 | 8.7 | 12.2 | 0.00 | 0.00 | 0.00 | 53 | 1013.2 |
| 20260503001854 | 51 | 321 | 8.7 | 12.2 | 0.00 | 0.00 | 0.00 | 52 | 1013.2 |
| 20260503001754 | 51 | 317 | 8.7 | 13.0 | 0.00 | 0.00 | 0.00 | 52 | 1013.3 |
| 20260503001655 | 51 | 312 | 8.7 | 13.0 | 0.00 | 0.00 | 0.00 | 52 | 1013.2 |
| 20260503001554 | 51 | 299 | 8.7 | 13.0 | 0.00 | 0.00 | 0.00 | 52 | 1013.1 |
| 20260503001455 | 51 | 311 | 8.7 | 13.0 | 0.00 | 0.00 | 0.00 | 51 | 1013.1 |
| 20260503001354 | 51 | 320 | 8.7 | 13.0 | 0.00 | 0.00 | 0.00 | 51 | 1013.2 |
| 20260503001252 | 51 | 283 | 8.7 | 13.0 | 0.00 | 0.00 | 0.00 | 52 | 1013.0 |
| 20260503001152 | 51 | 317 | 8.7 | 13.0 | 0.00 | 0.00 | 0.00 | 51 | 1013.1 |
| 20260503001052 | 51 | 331 | 8.7 | 13.0 | 0.00 | 0.00 | 0.00 | 52 | 1013.1 |
| 20260503000951 | 51 | 342 | 8.7 | 13.0 | 0.00 | 0.00 | 0.00 | 51 | 1013.0 |
| 20260503000850 | 51 | 323 | 7.8 | 13.0 | 0.00 | 0.00 | 0.00 | 52 | 1013.1 |
| 20260503000748 | 51 | 316 | 8.7 | 12.2 | 0.00 | 0.00 | 0.00 | 51 | 1013.0 |
| 20260503000648 | 51 | 311 | 8.7 | 12.2 | 0.00 | 0.00 | 0.00 | 51 | 1013.0 |
| 20260503000548 | 51 | 316 | 8.7 | 12.2 | 0.00 | 0.00 | 0.00 | 51 | 1013.0 |
| 20260503000450 | 52 | 322 | 8.7 | 13.9 | 0.00 | 0.00 | 0.00 | 51 | 1013.1 |
| 20260503000348 | 52 | 304 | 8.7 | 13.9 | 0.00 | 0.00 | 0.00 | 51 | 1013.0 |
| 20260503000243 | 52 | 292 | 8.7 | 13.9 | 0.00 | 0.00 | 0.00 | 51 | 1013.0 |
| 20260503000142 | 52 | 310 | 8.7 | 13.9 | 0.00 | 0.00 | 0.00 | 51 | 1013.0 |
| 20260503000044 | 52 | 333 | 8.7 | 13.9 | 0.00 | 0.00 | 0.00 | 51 | 1012.9 |
| 20260502235943 | 52 | 306 | 8.7 | 13.9 | 0.00 | 0.00 | 0.00 | 51 | 1013.0 |
| 20260502235843 | 52 | 309 | 9.6 | 13.9 | 0.00 | 0.00 | 0.00 | 50 | 1012.9 |
| 20260502235738 | 52 | 302 | 9.6 | 13.9 | 0.00 | 0.00 | 0.00 | 50 | 1012.9 |
| 20260502235638 | 52 | 318 | 9.6 | 13.9 | 0.00 | 0.00 | 0.00 | 50 | 1012.9 |
| 20260502235539 | 52 | 311 | 8.7 | 13.9 | 0.00 | 0.00 | 0.00 | 50 | 1013.0 |
| 20260502235439 | 52 | 298 | 9.6 | 13.9 | 0.00 | 0.00 | 0.00 | 50 | 1012.9 |
| 20260502235339 | 52 | 293 | 9.6 | 15.6 | 0.00 | 0.00 | 0.00 | 50 | 1012.9 |
| 20260502235238 | 52 | 299 | 9.6 | 15.6 | 0.00 | 0.00 | 0.00 | 50 | 1012.9 |
| 20260502235138 | 52 | 320 | 9.6 | 15.6 | 0.00 | 0.00 | 0.00 | 50 | 1012.8 |
| 20260502235038 | 52 | 273 | 10.4 | 15.6 | 0.00 | 0.00 | 0.00 | 50 | 1012.8 |
| 20260502234938 | 53 | 338 | 10.4 | 15.6 | 0.00 | 0.00 | 0.00 | 49 | 1012.8 |
| 20260502234839 | 53 | 317 | 10.4 | 18.2 | 0.00 | 0.00 | 0.00 | 50 | 1012.8 |
| 20260502234739 | 53 | 271 | 10.4 | 18.2 | 0.00 | 0.00 | 0.00 | 50 | 1012.7 |
| 20260502234636 | 53 | 308 | 10.4 | 18.2 | 0.00 | 0.00 | 0.00 | 50 | 1012.7 |
| 20260502234534 | 53 | 345 | 10.4 | 18.2 | 0.00 | 0.00 | 0.00 | 49 | 1012.7 |
| 20260502234435 | 53 | 280 | 10.4 | 18.2 | 0.00 | 0.00 | 0.00 | 49 | 1012.6 |
| 20260502234334 | 53 | 306 | 9.6 | 18.2 | 0.00 | 0.00 | 0.00 | 49 | 1012.7 |
| 20260502234234 | 53 | 284 | 9.6 | 18.2 | 0.00 | 0.00 | 0.00 | 49 | 1012.7 |
| 20260502234135 | 53 | 299 | 9.6 | 18.2 | 0.00 | 0.00 | 0.00 | 49 | 1012.6 |
| 20260502234034 | 53 | 310 | 9.6 | 18.2 | 0.00 | 0.00 | 0.00 | 49 | 1012.5 |
| 20260502233934 | 53 | 327 | 9.6 | 18.2 | 0.00 | 0.00 | 0.00 | 49 | 1012.6 |
| 20260502233835 | 53 | 333 | 9.6 | 15.6 | 0.00 | 0.00 | 0.00 | 49 | 1012.6 |
| 20260502233734 | 53 | 338 | 9.6 | 15.6 | 0.00 | 0.00 | 0.00 | 49 | 1012.6 |
| 20260502233634 | 53 | 310 | 10.4 | 16.5 | 0.00 | 0.00 | 0.00 | 48 | 1012.5 |
| 20260502233534 | 53 | 315 | 10.4 | 16.5 | 0.00 | 0.00 | 0.00 | 49 | 1012.5 |
| 20260502233433 | 53 | 307 | 10.4 | 16.5 | 0.00 | 0.00 | 0.00 | 49 | 1012.6 |
| 20260502233332 | 53 | 338 | 10.4 | 16.5 | 0.00 | 0.00 | 0.00 | 48 | 1012.4 |
| 20260502233232 | 53 | 306 | 10.4 | 16.5 | 0.00 | 0.00 | 0.00 | 47 | 1012.5 |
| 20260502233131 | 54 | 333 | 10.4 | 16.5 | 0.00 | 0.00 | 0.00 | 47 | 1012.5 |
| 20260502233027 | 54 | 335 | 10.4 | 16.5 | 0.00 | 0.00 | 0.00 | 47 | 1012.4 |
| 20260502232926 | 54 | 306 | 10.4 | 16.5 | 0.00 | 0.00 | 0.00 | 47 | 1012.4 |
| 20260502232825 | 54 | 296 | 10.4 | 16.5 | 0.00 | 0.00 | 0.00 | 47 | 1012.4 |
| 20260502232728 | 54 | 326 | 9.6 | 15.6 | 0.00 | 0.00 | 0.00 | 47 | 1012.3 |
| 20260502232627 | 54 | 309 | 9.6 | 15.6 | 0.00 | 0.00 | 0.00 | 47 | 1012.4 |
| 20260502232527 | 54 | 319 | 8.7 | 15.6 | 0.00 | 0.00 | 0.00 | 47 | 1012.4 |
| 20260502232427 | 54 | 296 | 8.7 | 15.6 | 0.00 | 0.00 | 0.00 | 47 | 1012.4 |
| 20260502232321 | 54 | 346 | 8.7 | 15.6 | 0.00 | 0.00 | 0.00 | 47 | 1012.4 |
| 20260502232222 | 55 | 275 | 8.7 | 15.6 | 0.00 | 0.00 | 0.00 | 47 | 1012.4 |
| 20260502232121 | 55 | 344 | 8.7 | 15.6 | 0.00 | 0.00 | 0.00 | 47 | 1012.3 |
| 20260502232020 | 55 | 330 | 8.7 | 16.5 | 0.00 | 0.00 | 0.00 | 47 | 1012.4 |
| 20260502231921 | 55 | 314 | 8.7 | 16.5 | 0.00 | 0.00 | 0.00 | 47 | 1012.3 |
| 20260502231815 | 55 | 319 | 9.6 | 16.5 | 0.00 | 0.00 | 0.00 | 47 | 1012.3 |
| 20260502231715 | 55 | 327 | 9.6 | 16.5 | 0.00 | 0.00 | 0.00 | 47 | 1012.3 |
| 20260502231615 | 55 | 339 | 9.6 | 16.5 | 0.00 | 0.00 | 0.00 | 46 | 1012.2 |
| 20260502231515 | 55 | 296 | 9.6 | 16.5 | 0.00 | 0.00 | 0.00 | 46 | 1012.3 |
| 20260502231414 | 55 | 313 | 10.4 | 16.5 | 0.00 | 0.00 | 0.00 | 46 | 1012.2 |
| 20260502231310 | 55 | 278 | 10.4 | 16.5 | 0.00 | 0.00 | 0.00 | 46 | 1012.3 |
| 20260502231209 | 55 | 325 | 10.4 | 16.5 | 0.00 | 0.00 | 0.00 | 46 | 1012.2 |
| 20260502231108 | 55 | 312 | 9.6 | 16.5 | 0.00 | 0.00 | 0.00 | 46 | 1012.3 |
| 20260502231009 | 55 | 295 | 9.6 | 16.5 | 0.00 | 0.00 | 0.00 | 46 | 1012.3 |
| 20260502230908 | 55 | 294 | 9.6 | 16.5 | 0.00 | 0.00 | 0.00 | 45 | 1012.3 |
| 20260502230808 | 55 | 307 | 9.6 | 16.5 | 0.00 | 0.00 | 0.00 | 45 | 1012.2 |
| 20260502230709 | 55 | 297 | 9.6 | 16.5 | 0.00 | 0.00 | 0.00 | 45 | 1012.3 |
| 20260502230609 | 55 | 297 | 8.7 | 16.5 | 0.00 | 0.00 | 0.00 | 46 | 1012.2 |
| 20260502230508 | 55 | 292 | 8.7 | 16.5 | 0.00 | 0.00 | 0.00 | 46 | 1012.2 |
| 20260502230408 | 55 | 323 | 8.7 | 16.5 | 0.00 | 0.00 | 0.00 | 46 | 1012.2 |
| 20260502230306 | 55 | 334 | 8.7 | 16.5 | 0.00 | 0.00 | 0.00 | 46 | 1012.3 |
| 20260502230206 | 55 | 283 | 8.7 | 16.5 | 0.00 | 0.00 | 0.00 | 47 | 1012.2 |
| 20260502230106 | 55 | 302 | 7.8 | 16.5 | 0.00 | 0.00 | 0.00 | 47 | 1012.2 |
| 20260502230006 | 55 | 267 | 7.8 | 16.5 | 0.00 | 0.00 | 0.00 | 47 | 1012.2 |
| 20260502225906 | 55 | 315 | 7.0 | 13.9 | 0.00 | 0.00 | 0.00 | 47 | 1012.3 |
| 20260502225807 | 55 | 331 | 7.8 | 13.9 | 0.00 | 0.00 | 0.00 | 47 | 1012.3 |
| 20260502225706 | 55 | 298 | 8.7 | 13.9 | 0.00 | 0.00 | 0.00 | 47 | 1012.2 |
| 20260502225602 | 55 | 307 | 8.7 | 16.5 | 0.00 | 0.00 | 0.00 | 47 | 1012.2 |
| 20260502225502 | 55 | 317 | 8.7 | 16.5 | 0.00 | 0.00 | 0.00 | 48 | 1012.1 |
| 20260502225403 | 55 | 309 | 9.6 | 16.5 | 0.00 | 0.00 | 0.00 | 47 | 1012.2 |
| 20260502225304 | 55 | 312 | 9.6 | 16.5 | 0.00 | 0.00 | 0.00 | 47 | 1012.2 |
| 20260502225202 | 55 | 304 | 9.6 | 16.5 | 0.00 | 0.00 | 0.00 | 47 | 1012.1 |
| 20260502225102 | 55 | 314 | 10.4 | 16.5 | 0.00 | 0.00 | 0.00 | 47 | 1012.2 |
| 20260502225004 | 55 | 333 | 10.4 | 16.5 | 0.00 | 0.00 | 0.00 | 46 | 1012.2 |
| 20260502224902 | 55 | 320 | 11.3 | 17.4 | 0.00 | 0.00 | 0.00 | 47 | 1012.2 |
| 20260502224802 | 55 | 302 | 10.4 | 17.4 | 0.00 | 0.00 | 0.00 | 46 | 1012.1 |
| 20260502224700 | 55 | 316 | 10.4 | 17.4 | 0.00 | 0.00 | 0.00 | 46 | 1012.2 |
| 20260502224600 | 55 | 292 | 10.4 | 17.4 | 0.00 | 0.00 | 0.00 | 46 | 1012.1 |
| 20260502224500 | 55 | 320 | 10.4 | 17.4 | 0.00 | 0.00 | 0.00 | 45 | 1012.1 |
| 20260502224400 | 55 | 313 | 10.4 | 17.4 | 0.00 | 0.00 | 0.00 | 46 | 1012.1 |
| 20260502224301 | 55 | 298 | 10.4 | 17.4 | 0.00 | 0.00 | 0.00 | 46 | 1012.1 |
| 20260502224201 | 55 | 327 | 10.4 | 17.4 | 0.00 | 0.00 | 0.00 | 45 | 1012.1 |
| 20260502224100 | 55 | 286 | 10.4 | 17.4 | 0.00 | 0.00 | 0.00 | 45 | 1012.1 |
| 20260502224001 | 56 | 317 | 10.4 | 17.4 | 0.00 | 0.00 | 0.00 | 45 | 1012.1 |
| 20260502223855 | 56 | 327 | 10.4 | 17.4 | 0.00 | 0.00 | 0.00 | 45 | 1012.0 |
| 20260502223755 | 56 | 333 | 10.4 | 17.4 | 0.00 | 0.00 | 0.00 | 45 | 1012.1 |
| 20260502223655 | 56 | 311 | 11.3 | 17.4 | 0.00 | 0.00 | 0.00 | 45 | 1012.0 |
| 20260502223555 | 56 | 306 | 10.4 | 19.1 | 0.00 | 0.00 | 0.00 | 45 | 1012.1 |
| 20260502223454 | 56 | 295 | 10.4 | 19.1 | 0.00 | 0.00 | 0.00 | 45 | 1012.0 |
| 20260502223350 | 56 | 325 | 10.4 | 19.1 | 0.00 | 0.00 | 0.00 | 45 | 1012.0 |
| 20260502223251 | 56 | 339 | 10.4 | 19.1 | 0.00 | 0.00 | 0.00 | 45 | 1012.0 |
| 20260502223150 | 56 | 296 | 9.6 | 19.1 | 0.00 | 0.00 | 0.00 | 46 | 1012.0 |
| 20260502223050 | 56 | 284 | 9.6 | 19.1 | 0.00 | 0.00 | 0.00 | 44 | 1012.0 |
| 20260502222949 | 56 | 338 | 9.6 | 19.1 | 0.00 | 0.00 | 0.00 | 44 | 1011.8 |
| 20260502222850 | 57 | 327 | 9.6 | 19.1 | 0.00 | 0.00 | 0.00 | 44 | 1012.0 |
| 20260502222750 | 57 | 330 | 9.6 | 19.1 | 0.00 | 0.00 | 0.00 | 44 | 1012.0 |
| 20260502222650 | 57 | 308 | 8.7 | 19.1 | 0.00 | 0.00 | 0.00 | 44 | 1012.0 |
| 20260502222549 | 57 | 312 | 8.7 | 13.0 | 0.00 | 0.00 | 0.00 | 45 | 1012.0 |
| 20260502222450 | 57 | 328 | 9.6 | 13.0 | 0.00 | 0.00 | 0.00 | 44 | 1012.0 |
| 20260502222348 | 57 | 322 | 9.6 | 13.0 | 0.00 | 0.00 | 0.00 | 45 | 1011.8 |
| 20260502222246 | 57 | 292 | 9.6 | 13.0 | 0.00 | 0.00 | 0.00 | 45 | 1012.1 |
| 20260502222146 | 57 | 311 | 9.6 | 13.0 | 0.00 | 0.00 | 0.00 | 45 | 1011.8 |
| 20260502222048 | 57 | 314 | 9.6 | 13.0 | 0.00 | 0.00 | 0.00 | 45 | 1011.8 |
| 20260502221948 | 56 | 327 | 9.6 | 16.5 | 0.00 | 0.00 | 0.00 | 45 | 1011.8 |
| 20260502221847 | 56 | 313 | 9.6 | 16.5 | 0.00 | 0.00 | 0.00 | 45 | 1011.8 |
| 20260502221747 | 56 | 336 | 9.6 | 16.5 | 0.00 | 0.00 | 0.00 | 45 | 1012.0 |
| 20260502221644 | 56 | 342 | 9.6 | 16.5 | 0.00 | 0.00 | 0.00 | 45 | 1011.7 |
| 20260502221542 | 57 | 330 | 10.4 | 16.5 | 0.00 | 0.00 | 0.00 | 44 | 1011.7 |
| 20260502221440 | 57 | 320 | 10.4 | 16.5 | 0.00 | 0.00 | 0.00 | 45 | 1011.8 |
| 20260502221340 | 57 | 273 | 10.4 | 16.5 | 0.00 | 0.00 | 0.00 | 44 | 1011.7 |
| 20260502221241 | 57 | 284 | 10.4 | 19.1 | 0.00 | 0.00 | 0.00 | 45 | 1011.7 |
| 20260502221131 | 57 | 323 | 11.3 | 20.0 | 0.00 | 0.00 | 0.00 | 44 | 1011.6 |
| 20260502221031 | 57 | 311 | 11.3 | 20.0 | 0.00 | 0.00 | 0.00 | 45 | 1011.6 |
| 20260502220931 | 57 | 313 | 11.3 | 20.0 | 0.00 | 0.00 | 0.00 | 45 | 1011.6 |
| 20260502220830 | 57 | 318 | 10.4 | 20.0 | 0.00 | 0.00 | 0.00 | 45 | 1011.6 |
| 20260502220731 | 57 | 313 | 10.4 | 20.0 | 0.00 | 0.00 | 0.00 | 44 | 1011.6 |
| 20260502220625 | 57 | 311 | 10.4 | 20.0 | 0.00 | 0.00 | 0.00 | 44 | 1011.5 |
| 20260502220525 | 57 | 340 | 9.6 | 20.0 | 0.00 | 0.00 | 0.00 | 44 | 1011.6 |
| 20260502220425 | 57 | 273 | 9.6 | 20.0 | 0.00 | 0.00 | 0.00 | 43 | 1011.5 |
| 20260502220325 | 57 | 327 | 9.6 | 20.0 | 0.00 | 0.00 | 0.00 | 44 | 1011.5 |
| 20260502220224 | 57 | 313 | 9.6 | 20.0 | 0.00 | 0.00 | 0.00 | 44 | 1011.4 |
| 20260502220119 | 57 | 333 | 8.7 | 20.0 | 0.00 | 0.00 | 0.00 | 43 | 1011.4 |
| 20260502220018 | 57 | 296 | 8.7 | 17.4 | 0.00 | 0.00 | 0.00 | 44 | 1011.4 |
| 20260502215919 | 57 | 327 | 7.8 | 16.5 | 0.00 | 0.00 | 0.00 | 44 | 1011.4 |
| 20260502215819 | 57 | 322 | 8.7 | 16.5 | 0.00 | 0.00 | 0.00 | 44 | 1011.4 |
| 20260502215719 | 57 | 288 | 7.8 | 16.5 | 0.00 | 0.00 | 0.00 | 44 | 1011.5 |
| 20260502215611 | 58 | 336 | 8.7 | 16.5 | 0.00 | 0.00 | 0.00 | 43 | 1011.4 |
| 20260502215509 | 58 | 334 | 8.7 | 16.5 | 0.00 | 0.00 | 0.00 | 43 | 1011.4 |
| 20260502215409 | 58 | 326 | 8.7 | 16.5 | 0.00 | 0.00 | 0.00 | 44 | 1011.3 |
| 20260502215309 | 58 | 345 | 7.8 | 15.6 | 0.00 | 0.00 | 0.00 | 44 | 1011.3 |
| 20260502215208 | 58 | 293 | 7.0 | 15.6 | 0.00 | 0.00 | 0.00 | 43 | 1011.3 |
| 20260502215103 | 58 | 334 | 7.0 | 15.6 | 0.00 | 0.00 | 0.00 | 44 | 1011.3 |
| 20260502215003 | 58 | 306 | 7.0 | 13.0 | 0.00 | 0.00 | 0.00 | 45 | 1011.3 |
| 20260502214903 | 58 | 290 | 7.0 | 13.0 | 0.00 | 0.00 | 0.00 | 45 | 1011.3 |
| 20260502214802 | 58 | 323 | 7.0 | 13.0 | 0.00 | 0.00 | 0.00 | 44 | 1011.3 |
| 20260502214703 | 58 | 312 | 7.0 | 12.2 | 0.00 | 0.00 | 0.00 | 44 | 1011.3 |
| 20260502214557 | 58 | 315 | 7.0 | 12.2 | 0.00 | 0.00 | 0.00 | 44 | 1011.3 |
| 20260502214457 | 58 | 313 | 7.0 | 13.0 | 0.00 | 0.00 | 0.00 | 45 | 1011.2 |
| 20260502214357 | 58 | 313 | 7.0 | 13.0 | 0.00 | 0.00 | 0.00 | 46 | 1011.2 |
| 20260502214257 | 58 | 307 | 7.8 | 13.0 | 0.00 | 0.00 | 0.00 | 45 | 1011.1 |
| 20260502214156 | 58 | 318 | 7.8 | 13.0 | 0.00 | 0.00 | 0.00 | 46 | 1011.1 |
| 20260502214048 | 58 | 286 | 7.8 | 13.0 | 0.00 | 0.00 | 0.00 | 45 | 1011.2 |
| 20260502213948 | 58 | 281 | 7.8 | 13.0 | 0.00 | 0.00 | 0.00 | 44 | 1011.2 |
| 20260502213847 | 58 | 294 | 7.8 | 13.0 | 0.00 | 0.00 | 0.00 | 45 | 1011.1 |
| 20260502213749 | 58 | 313 | 7.8 | 13.0 | 0.00 | 0.00 | 0.00 | 44 | 1011.1 |
| 20260502213647 | 58 | 332 | 7.8 | 13.0 | 0.00 | 0.00 | 0.00 | 45 | 1011.2 |
| 20260502213541 | 58 | 306 | 7.8 | 13.0 | 0.00 | 0.00 | 0.00 | 45 | 1011.2 |
| 20260502213440 | 58 | 300 | 7.0 | 11.3 | 0.00 | 0.00 | 0.00 | 45 | 1011.1 |
| 20260502213341 | 58 | 312 | 7.0 | 11.3 | 0.00 | 0.00 | 0.00 | 45 | 1011.1 |
| 20260502213241 | 58 | 300 | 7.0 | 11.3 | 0.00 | 0.00 | 0.00 | 44 | 1011.0 |
| 20260502213140 | 58 | 332 | 7.0 | 11.3 | 0.00 | 0.00 | 0.00 | 45 | 1011.1 |
| 20260502213035 | 58 | 326 | 7.0 | 12.2 | 0.00 | 0.00 | 0.00 | 44 | 1011.0 |
| 20260502212936 | 58 | 300 | 7.0 | 12.2 | 0.00 | 0.00 | 0.00 | 45 | 1011.0 |
| 20260502212835 | 58 | 294 | 7.0 | 12.2 | 0.00 | 0.00 | 0.00 | 45 | 1011.1 |
| 20260502212734 | 58 | 349 | 7.0 | 12.2 | 0.00 | 0.00 | 0.00 | 44 | 1011.1 |
| 20260502212635 | 58 | 314 | 7.0 | 12.2 | 0.00 | 0.00 | 0.00 | 44 | 1011.0 |
| 20260502212525 | 58 | 309 | 7.0 | 12.2 | 0.00 | 0.00 | 0.00 | 45 | 1011.0 |
| 20260502212424 | 58 | 309 | 7.8 | 12.2 | 0.00 | 0.00 | 0.00 | 44 | 1011.0 |
| 20260502212325 | 58 | 349 | 7.0 | 12.2 | 0.00 | 0.00 | 0.00 | 44 | 1011.0 |
| 20260502212224 | 58 | 332 | 7.0 | 12.2 | 0.00 | 0.00 | 0.00 | 44 | 1010.9 |
| 20260502212125 | 58 | 323 | 7.0 | 12.2 | 0.00 | 0.00 | 0.00 | 44 | 1011.0 |
| 20260502212021 | 59 | 283 | 6.1 | 11.3 | 0.00 | 0.00 | 0.00 | 44 | 1011.0 |
| 20260502211919 | 58 | 322 | 6.1 | 11.3 | 0.00 | 0.00 | 0.00 | 46 | 1011.0 |
| 20260502211818 | 58 | 344 | 5.2 | 11.3 | 0.00 | 0.00 | 0.00 | 45 | 1010.9 |
| 20260502211719 | 58 | 319 | 4.3 | 11.3 | 0.00 | 0.00 | 0.00 | 44 | 1010.9 |
| 20260502211619 | 58 | 319 | 4.3 | 11.3 | 0.00 | 0.00 | 0.00 | 45 | 1010.9 |
| 20260502211516 | 58 | 318 | 3.5 | 11.3 | 0.00 | 0.00 | 0.00 | 46 | 1010.8 |
| 20260502211416 | 58 | 341 | 2.6 | 9.6 | 0.00 | 0.00 | 0.00 | 46 | 1010.9 |
| 20260502211313 | 58 | 355 | 2.6 | 5.2 | 0.00 | 0.00 | 0.00 | 47 | 1010.9 |
| 20260502211215 | 58 | 321 | 2.6 | 5.2 | 0.00 | 0.00 | 0.00 | 47 | 1010.9 |
| 20260502211112 | 58 | 325 | 2.6 | 5.2 | 0.00 | 0.00 | 0.00 | 46 | 1010.9 |
| 20260502211002 | 58 | 306 | 2.6 | 5.2 | 0.00 | 0.00 | 0.00 | 46 | 1010.9 |
| 20260502210903 | 58 | 306 | 2.6 | 5.2 | 0.00 | 0.00 | 0.00 | 46 | 1010.9 |
| 20260502210803 | 58 | 318 | 2.6 | 7.0 | 0.00 | 0.00 | 0.00 | 46 | 1010.8 |
| 20260502210702 | 58 | 315 | 2.6 | 7.0 | 0.00 | 0.00 | 0.00 | 43 | 1010.9 |
| 20260502210602 | 58 | 277 | 3.5 | 7.0 | 0.00 | 0.00 | 0.00 | 42 | 1010.9 |
| 20260502210459 | 58 | 276 | 3.5 | 8.7 | 0.00 | 0.00 | 0.00 | 45 | 1010.9 |
| 20260502210400 | 58 | 271 | 3.5 | 8.7 | 0.00 | 0.00 | 0.00 | 47 | 1010.9 |
| 20260502210300 | 58 | 271 | 4.3 | 8.7 | 0.00 | 0.00 | 0.00 | 46 | 1010.8 |
| 20260502210159 | 58 | 292 | 4.3 | 8.7 | 0.00 | 0.00 | 0.00 | 46 | 1010.9 |
| 20260502210056 | 59 | 323 | 4.3 | 8.7 | 0.00 | 0.00 | 0.00 | 45 | 1010.8 |
| 20260502205951 | 59 | 277 | 4.3 | 8.7 | 0.00 | 0.00 | 0.00 | 45 | 1010.8 |
| 20260502205849 | 59 | 297 | 4.3 | 8.7 | 0.00 | 0.00 | 0.00 | 44 | 1010.8 |
| 20260502205751 | 59 | 330 | 4.3 | 10.4 | 0.00 | 0.00 | 0.00 | 44 | 1010.8 |
| 20260502205651 | 59 | 312 | 4.3 | 10.4 | 0.00 | 0.00 | 0.00 | 42 | 1010.7 |
| 20260502205551 | 59 | 300 | 4.3 | 10.4 | 0.00 | 0.00 | 0.00 | 44 | 1010.7 |
| 20260502205441 | 59 | 286 | 4.3 | 10.4 | 0.00 | 0.00 | 0.00 | 44 | 1010.7 |
| 20260502205340 | 59 | 324 | 4.3 | 10.4 | 0.00 | 0.00 | 0.00 | 43 | 1010.8 |
| 20260502205241 | 59 | 287 | 4.3 | 10.4 | 0.00 | 0.00 | 0.00 | 43 | 1010.8 |
| 20260502205141 | 60 | 281 | 4.3 | 10.4 | 0.00 | 0.00 | 0.00 | 44 | 1010.8 |
| 20260502205041 | 60 | 336 | 3.5 | 10.4 | 0.00 | 0.00 | 0.00 | 43 | 1010.8 |
| 20260502204936 | 60 | 340 | 3.5 | 10.4 | 0.00 | 0.00 | 0.00 | 43 | 1010.7 |
| 20260502204836 | 60 | 302 | 2.6 | 8.7 | 0.00 | 0.00 | 0.00 | 44 | 1010.8 |
| 20260502204736 | 60 | 310 | 2.6 | 8.7 | 0.00 | 0.00 | 0.00 | 44 | 1010.7 |
| 20260502204637 | 60 | 14 | 2.6 | 8.7 | 0.00 | 0.00 | 0.00 | 45 | 1010.7 |
| 20260502204535 | 60 | 350 | 2.6 | 8.7 | 0.00 | 0.00 | 0.00 | 45 | 1010.7 |
| 20260502204431 | 60 | 342 | 2.6 | 8.7 | 0.00 | 0.00 | 0.00 | 45 | 1010.7 |
| 20260502204329 | 60 | 314 | 2.6 | 8.7 | 0.00 | 0.00 | 0.00 | 45 | 1010.7 |
| 20260502204229 | 60 | 341 | 1.7 | 7.8 | 0.00 | 0.00 | 0.00 | 43 | 1010.6 |
| 20260502204128 | 60 | 346 | 1.7 | 7.8 | 0.00 | 0.00 | 0.00 | 44 | 1010.6 |
| 20260502204029 | 60 | 355 | 1.7 | 7.8 | 0.00 | 0.00 | 0.00 | 44 | 1010.6 |
| 20260502203921 | 60 | 355 | 1.7 | 7.8 | 0.00 | 0.00 | 0.00 | 45 | 1010.6 |
| 20260502203818 | 60 | 262 | 1.7 | 7.8 | 0.00 | 0.00 | 0.00 | 46 | 1010.7 |
| 20260502203717 | 60 | 342 | 1.7 | 7.8 | 0.00 | 0.00 | 0.00 | 46 | 1010.7 |
| 20260502203618 | 60 | 333 | 1.7 | 7.8 | 0.00 | 0.00 | 0.00 | 44 | 1010.7 |
| 20260502203518 | 60 | 5 | 0.9 | 4.3 | 0.00 | 0.00 | 0.00 | 44 | 1010.7 |
| 20260502203412 | 60 | 355 | 0.9 | 3.5 | 0.00 | 0.00 | 0.00 | 43 | 1010.7 |
| 20260502203312 | 60 | 5 | 0.9 | 3.5 | 0.00 | 0.00 | 0.00 | 43 | 1010.7 |
| 20260502203213 | 60 | 10 | 0.0 | 3.5 | 0.00 | 0.00 | 0.00 | 44 | 1010.8 |
| 20260502203112 | 60 | 14 | 0.0 | 1.7 | 0.00 | 0.00 | 0.00 | 43 | 1010.7 |
| 20260502203013 | 60 | 14 | 0.0 | 1.7 | 0.00 | 0.00 | 0.00 | 44 | 1010.7 |
| 20260502202912 | 60 | 13 | 0.0 | 1.7 | 0.00 | 0.00 | 0.00 | 42 | 1010.8 |
| 20260502202811 | 60 | 10 | 0.0 | 1.7 | 0.00 | 0.00 | 0.00 | 42 | 1010.7 |
| 20260502202710 | 60 | 348 | 0.0 | 1.7 | 0.00 | 0.00 | 0.00 | 44 | 1010.8 |
| 20260502202609 | 60 | 345 | 0.0 | 1.7 | 0.00 | 0.00 | 0.00 | 43 | 1010.7 |
| 20260502202506 | 60 | 318 | 0.9 | 2.6 | 0.00 | 0.00 | 0.00 | 45 | 1010.8 |
| 20260502202400 | 60 | 327 | 0.9 | 4.3 | 0.00 | 0.00 | 0.00 | 43 | 1010.8 |
| 20260502202301 | 60 | 279 | 0.9 | 4.3 | 0.00 | 0.00 | 0.00 | 43 | 1010.9 |
| 20260502202201 | 60 | 355 | 1.7 | 6.1 | 0.00 | 0.00 | 0.00 | 42 | 1010.8 |
| 20260502202059 | 60 | 311 | 1.7 | 6.1 | 0.00 | 0.00 | 0.00 | 45 | 1010.8 |
| 20260502201957 | 60 | 337 | 1.7 | 6.1 | 0.00 | 0.00 | 0.00 | 44 | 1010.9 |
| 20260502201851 | 60 | 337 | 1.7 | 7.8 | 0.00 | 0.00 | 0.00 | 44 | 1010.8 |
| 20260502201751 | 60 | 336 | 2.6 | 7.8 | 0.00 | 0.00 | 0.00 | 42 | 1010.9 |
| 20260502201650 | 60 | 336 | 2.6 | 7.8 | 0.00 | 0.00 | 0.00 | 43 | 1010.8 |
| 20260502201550 | 60 | 350 | 3.5 | 7.8 | 0.00 | 0.00 | 0.00 | 44 | 1010.8 |
| 20260502201450 | 60 | 355 | 3.5 | 7.8 | 0.00 | 0.00 | 0.00 | 45 | 1010.8 |
| 20260502201347 | 60 | 295 | 3.5 | 7.8 | 0.00 | 0.00 | 0.00 | 44 | 1010.8 |
| 20260502201247 | 60 | 281 | 3.5 | 7.8 | 0.00 | 0.00 | 0.00 | 44 | 1010.8 |
| 20260502201146 | 60 | 300 | 3.5 | 7.8 | 0.00 | 0.00 | 0.00 | 45 | 1010.8 |
| 20260502201045 | 60 | 308 | 4.3 | 8.7 | 0.00 | 0.00 | 0.00 | 43 | 1010.9 |
| 20260502200944 | 59 | 308 | 4.3 | 8.7 | 0.00 | 0.00 | 0.00 | 45 | 1010.9 |
| 20260502200837 | 59 | 342 | 4.3 | 8.7 | 0.00 | 0.00 | 0.00 | 44 | 1010.9 |
| 20260502200735 | 59 | 315 | 4.3 | 8.7 | 0.00 | 0.00 | 0.00 | 44 | 1011.0 |
| 20260502200636 | 59 | 284 | 4.3 | 8.7 | 0.00 | 0.00 | 0.00 | 46 | 1010.9 |
| 20260502200537 | 59 | 342 | 4.3 | 10.4 | 0.00 | 0.00 | 0.00 | 46 | 1010.9 |
| 20260502200434 | 59 | 343 | 5.2 | 10.4 | 0.00 | 0.00 | 0.00 | 44 | 1011.0 |
| 20260502200331 | 59 | 292 | 5.2 | 10.4 | 0.00 | 0.00 | 0.00 | 45 | 1011.0 |
| 20260502200228 | 59 | 338 | 4.3 | 10.4 | 0.00 | 0.00 | 0.00 | 45 | 1011.0 |
| 20260502200128 | 59 | 309 | 4.3 | 10.4 | 0.00 | 0.00 | 0.00 | 44 | 1011.0 |
| 20260502200029 | 60 | 344 | 3.5 | 10.4 | 0.00 | 0.00 | 0.00 | 43 | 1011.0 |
| 20260502195929 | 60 | 296 | 3.5 | 10.4 | 0.00 | 0.00 | 0.00 | 43 | 1011.0 |
| 20260502195822 | 60 | 296 | 3.5 | 10.4 | 0.00 | 0.00 | 0.00 | 43 | 1011.0 |
| 20260502195722 | 60 | 313 | 3.5 | 10.4 | 0.00 | 0.00 | 0.00 | 44 | 1010.9 |
| 20260502195623 | 60 | 336 | 2.6 | 10.4 | 0.00 | 0.00 | 0.00 | 44 | 1011.0 |
| 20260502195522 | 60 | 351 | 2.6 | 9.6 | 0.00 | 0.00 | 0.00 | 43 | 1011.0 |
| 20260502195423 | 60 | 325 | 1.7 | 9.6 | 0.00 | 0.00 | 0.00 | 46 | 1011.1 |
| 20260502195316 | 60 | 349 | 1.7 | 6.1 | 0.00 | 0.00 | 0.00 | 46 | 1011.0 |
| 20260502195217 | 60 | 83 | 1.7 | 6.1 | 0.00 | 0.00 | 0.00 | 45 | 1011.1 |
| 20260502195117 | 60 | 83 | 1.7 | 6.1 | 0.00 | 0.00 | 0.00 | 46 | 1011.0 |
| 20260502195014 | 60 | 83 | 2.6 | 6.1 | 0.00 | 0.00 | 0.00 | 46 | 1011.0 |
| 20260502194913 | 60 | 70 | 2.6 | 6.1 | 0.00 | 0.00 | 0.00 | 45 | 1011.1 |
| 20260502194807 | 60 | 0 | 2.6 | 6.1 | 0.00 | 0.00 | 0.00 | 45 | 1011.1 |
| 20260502194706 | 60 | 351 | 2.6 | 6.1 | 0.00 | 0.00 | 0.00 | 46 | 1011.0 |
| 20260502194607 | 59 | 340 | 2.6 | 6.1 | 0.00 | 0.00 | 0.00 | 43 | 1011.0 |
| 20260502194507 | 59 | 309 | 2.6 | 6.1 | 0.00 | 0.00 | 0.00 | 45 | 1011.1 |
| 20260502194406 | 59 | 339 | 2.6 | 7.0 | 0.00 | 0.00 | 0.00 | 44 | 1011.1 |
| 20260502194301 | 59 | 277 | 3.5 | 7.0 | 0.00 | 0.00 | 0.00 | 43 | 1011.1 |
| 20260502194159 | 59 | 269 | 2.6 | 7.0 | 0.00 | 0.00 | 0.00 | 44 | 1011.1 |
| 20260502194101 | 59 | 331 | 2.6 | 7.0 | 0.00 | 0.00 | 0.00 | 46 | 1011.1 |
| 20260502194000 | 59 | 35 | 2.6 | 7.0 | 0.00 | 0.00 | 0.00 | 46 | 1011.2 |
| 20260502193901 | 59 | 31 | 2.6 | 7.0 | 0.00 | 0.00 | 0.00 | 44 | 1011.2 |
| 20260502193752 | 59 | 19 | 2.6 | 7.0 | 0.00 | 0.00 | 0.00 | 45 | 1011.2 |
| 20260502193651 | 59 | 16 | 2.6 | 7.0 | 0.00 | 0.00 | 0.00 | 43 | 1011.3 |
| 20260502193551 | 59 | 294 | 1.7 | 7.0 | 0.00 | 0.00 | 0.00 | 44 | 1011.3 |
| 20260502193451 | 59 | 286 | 1.7 | 7.0 | 0.00 | 0.00 | 0.00 | 45 | 1011.3 |
| 20260502193350 | 59 | 318 | 1.7 | 4.3 | 0.00 | 0.00 | 0.00 | 45 | 1011.3 |
| 20260502193246 | 59 | 14 | 1.7 | 5.2 | 0.00 | 0.00 | 0.00 | 46 | 1011.3 |
| 20260502193146 | 59 | 34 | 1.7 | 5.2 | 0.00 | 0.00 | 0.00 | 44 | 1011.4 |
| 20260502193046 | 59 | 32 | 1.7 | 5.2 | 0.00 | 0.00 | 0.00 | 46 | 1011.4 |
| 20260502192947 | 59 | 32 | 1.7 | 5.2 | 0.00 | 0.00 | 0.00 | 46 | 1011.4 |
| 20260502192845 | 59 | 39 | 1.7 | 5.2 | 0.00 | 0.00 | 0.00 | 46 | 1011.3 |
| 20260502192741 | 59 | 63 | 2.6 | 7.0 | 0.00 | 0.00 | 0.00 | 46 | 1011.3 |
| 20260502192638 | 59 | 97 | 2.6 | 7.0 | 0.00 | 0.00 | 0.00 | 44 | 1011.4 |
| 20260502192538 | 59 | 97 | 2.6 | 7.0 | 0.00 | 0.00 | 0.00 | 44 | 1011.4 |
| 20260502192437 | 59 | 97 | 2.6 | 7.0 | 0.00 | 0.00 | 0.00 | 44 | 1011.4 |
| 20260502192339 | 59 | 94 | 2.6 | 7.0 | 0.00 | 0.00 | 0.00 | 44 | 1011.4 |
| 20260502192231 | 59 | 67 | 2.6 | 7.0 | 0.00 | 0.00 | 0.00 | 44 | 1011.5 |
| 20260502192127 | 59 | 36 | 2.6 | 7.0 | 0.00 | 0.00 | 0.00 | 45 | 1011.4 |
| 20260502192028 | 59 | 34 | 2.6 | 7.0 | 0.00 | 0.00 | 0.00 | 45 | 1011.5 |
| 20260502191928 | 59 | 11 | 2.6 | 7.0 | 0.00 | 0.00 | 0.00 | 46 | 1011.4 |
| 20260502191829 | 59 | 34 | 2.6 | 9.6 | 0.00 | 0.00 | 0.00 | 48 | 1011.4 |
| 20260502191723 | 59 | 17 | 2.6 | 9.6 | 0.00 | 0.00 | 0.00 | 46 | 1011.4 |
| 20260502191625 | 59 | 37 | 2.6 | 9.6 | 0.00 | 0.00 | 0.00 | 45 | 1011.5 |
| 20260502191524 | 59 | 279 | 2.6 | 9.6 | 0.00 | 0.00 | 0.00 | 45 | 1011.5 |
| 20260502191423 | 59 | 51 | 2.6 | 9.6 | 0.00 | 0.00 | 0.00 | 45 | 1011.4 |
| 20260502191322 | 59 | 49 | 2.6 | 9.6 | 0.00 | 0.00 | 0.00 | 47 | 1011.4 |
| 20260502191217 | 59 | 19 | 2.6 | 9.6 | 0.00 | 0.00 | 0.00 | 47 | 1011.4 |
| 20260502191117 | 59 | 19 | 2.6 | 9.6 | 0.00 | 0.00 | 0.00 | 49 | 1011.4 |
| 20260502191017 | 59 | 336 | 2.6 | 9.6 | 0.00 | 0.00 | 0.00 | 43 | 1011.4 |
| 20260502190916 | 59 | 292 | 2.6 | 9.6 | 0.00 | 0.00 | 0.00 | 44 | 1011.5 |
| 20260502190817 | 59 | 355 | 2.6 | 7.0 | 0.00 | 0.00 | 0.00 | 44 | 1011.4 |
| 20260502190706 | 59 | 21 | 2.6 | 6.1 | 0.00 | 0.00 | 0.00 | 45 | 1011.5 |
| 20260502190606 | 59 | 5 | 2.6 | 6.1 | 0.00 | 0.00 | 0.00 | 46 | 1011.5 |
| 20260502190505 | 59 | 5 | 2.6 | 6.1 | 0.00 | 0.00 | 0.00 | 46 | 1011.5 |
| 20260502190406 | 59 | 15 | 2.6 | 6.1 | 0.00 | 0.00 | 0.00 | 47 | 1011.4 |
| 20260502190307 | 59 | 151 | 2.6 | 6.1 | 0.00 | 0.00 | 0.00 | 46 | 1011.5 |
| 20260502190202 | 58 | 124 | 2.6 | 6.1 | 0.00 | 0.00 | 0.00 | 45 | 1011.6 |
| 20260502190059 | 58 | 121 | 2.6 | 7.0 | 0.00 | 0.00 | 0.00 | 47 | 1011.5 |
| 20260502190001 | 58 | 112 | 2.6 | 7.0 | 0.00 | 0.00 | 0.00 | 45 | 1011.6 |
| 20260502185859 | 58 | 110 | 2.6 | 7.0 | 0.00 | 0.00 | 0.00 | 48 | 1011.7 |
| 20260502185801 | 58 | 117 | 2.6 | 7.0 | 0.00 | 0.00 | 0.00 | 45 | 1011.7 |
| 20260502185658 | 58 | 121 | 2.6 | 7.0 | 0.00 | 0.00 | 0.00 | 45 | 1011.7 |
| 20260502185559 | 58 | 121 | 2.6 | 7.0 | 0.00 | 0.00 | 0.00 | 46 | 1011.7 |
| 20260502185456 | 58 | 121 | 2.6 | 7.0 | 0.00 | 0.00 | 0.00 | 47 | 1011.8 |
| 20260502185356 | 58 | 130 | 2.6 | 7.0 | 0.00 | 0.00 | 0.00 | 45 | 1011.8 |
| 20260502185255 | 58 | 131 | 2.6 | 7.0 | 0.00 | 0.00 | 0.00 | 45 | 1011.7 |
| 20260502185145 | 58 | 111 | 2.6 | 7.0 | 0.00 | 0.00 | 0.00 | 45 | 1011.7 |
| 20260502185046 | 58 | 114 | 1.7 | 6.1 | 0.00 | 0.00 | 0.00 | 47 | 1011.7 |
| 20260502184947 | 58 | 114 | 1.7 | 6.1 | 0.00 | 0.00 | 0.00 | 46 | 1011.8 |
| 20260502184846 | 58 | 115 | 1.7 | 5.2 | 0.00 | 0.00 | 0.00 | 46 | 1011.7 |
| 20260502184746 | 58 | 88 | 1.7 | 3.5 | 0.00 | 0.00 | 0.00 | 45 | 1011.7 |
| 20260502184641 | 58 | 82 | 1.7 | 3.5 | 0.00 | 0.00 | 0.00 | 46 | 1011.7 |
| 20260502184538 | 58 | 222 | 1.7 | 4.3 | 0.00 | 0.00 | 0.00 | 45 | 1011.7 |
| 20260502184437 | 58 | 221 | 1.7 | 4.3 | 0.00 | 0.00 | 0.00 | 45 | 1011.8 |
| 20260502184338 | 58 | 17 | 1.7 | 4.3 | 0.00 | 0.00 | 0.00 | 47 | 1012.0 |
| 20260502184239 | 57 | 310 | 1.7 | 5.2 | 0.00 | 0.00 | 0.00 | 45 | 1011.7 |
| 20260502184132 | 57 | 281 | 2.6 | 7.8 | 0.00 | 0.00 | 0.00 | 46 | 1011.8 |
| 20260502184032 | 57 | 19 | 2.6 | 7.8 | 0.00 | 0.00 | 0.00 | 47 | 1012.0 |
| 20260502183933 | 57 | 22 | 2.6 | 7.8 | 0.00 | 0.00 | 0.00 | 46 | 1012.0 |
| 20260502183832 | 57 | 288 | 2.6 | 7.8 | 0.00 | 0.00 | 0.00 | 45 | 1012.0 |
| 20260502183733 | 57 | 250 | 3.5 | 8.7 | 0.00 | 0.00 | 0.00 | 45 | 1011.8 |
| 20260502183622 | 57 | 249 | 3.5 | 8.7 | 0.00 | 0.00 | 0.00 | 45 | 1011.8 |
| 20260502183522 | 57 | 9 | 3.5 | 8.7 | 0.00 | 0.00 | 0.00 | 46 | 1011.8 |
| 20260502183421 | 57 | 10 | 3.5 | 8.7 | 0.00 | 0.00 | 0.00 | 46 | 1011.8 |
| 20260502183323 | 57 | 340 | 3.5 | 8.7 | 0.00 | 0.00 | 0.00 | 45 | 1012.0 |
| 20260502183223 | 57 | 348 | 3.5 | 8.7 | 0.00 | 0.00 | 0.00 | 47 | 1012.0 |
| 20260502183118 | 57 | 5 | 3.5 | 8.7 | 0.00 | 0.00 | 0.00 | 48 | 1012.0 |
| 20260502183017 | 57 | 5 | 3.5 | 8.7 | 0.00 | 0.00 | 0.00 | 48 | 1011.8 |
| 20260502182917 | 57 | 288 | 3.5 | 8.7 | 0.00 | 0.00 | 0.00 | 47 | 1011.8 |
| 20260502182817 | 57 | 329 | 3.5 | 8.7 | 0.00 | 0.00 | 0.00 | 47 | 1011.7 |
| 20260502182716 | 57 | 100 | 2.6 | 8.7 | 0.00 | 0.00 | 0.00 | 46 | 1011.7 |
| 20260502182611 | 57 | 30 | 2.6 | 8.7 | 0.00 | 0.00 | 0.00 | 46 | 1011.7 |
| 20260502182511 | 57 | 57 | 2.6 | 8.7 | 0.00 | 0.00 | 0.00 | 47 | 1011.7 |
| 20260502182410 | 57 | 46 | 2.6 | 8.7 | 0.00 | 0.00 | 0.00 | 48 | 1011.7 |
| 20260502182313 | 57 | 42 | 2.6 | 8.7 | 0.00 | 0.00 | 0.00 | 49 | 1011.7 |
| 20260502182211 | 57 | 109 | 2.6 | 8.7 | 0.00 | 0.00 | 0.00 | 50 | 1011.7 |
| 20260502182100 | 57 | 118 | 2.6 | 8.7 | 0.00 | 0.00 | 0.00 | 47 | 1011.7 |
| 20260502182000 | 56 | 74 | 2.6 | 8.7 | 0.00 | 0.00 | 0.00 | 47 | 1011.8 |
| 20260502181900 | 56 | 286 | 3.5 | 8.7 | 0.00 | 0.00 | 0.00 | 46 | 1011.8 |
| 20260502181800 | 56 | 300 | 3.5 | 8.7 | 0.00 | 0.00 | 0.00 | 46 | 1011.8 |
| 20260502181700 | 56 | 296 | 3.5 | 8.7 | 0.00 | 0.00 | 0.00 | 47 | 1012.0 |
| 20260502181555 | 56 | 351 | 3.5 | 8.7 | 0.00 | 0.00 | 0.00 | 50 | 1012.0 |
| 20260502181455 | 56 | 92 | 3.5 | 8.7 | 0.00 | 0.00 | 0.00 | 47 | 1012.0 |
| 20260502181355 | 56 | 32 | 3.5 | 8.7 | 0.00 | 0.00 | 0.00 | 50 | 1012.0 |
| 20260502181255 | 56 | 95 | 3.5 | 8.7 | 0.00 | 0.00 | 0.00 | 48 | 1011.8 |
| 20260502181155 | 56 | 84 | 3.5 | 8.7 | 0.00 | 0.00 | 0.00 | 47 | 1012.0 |
| 20260502181051 | 56 | 57 | 2.6 | 8.7 | 0.00 | 0.00 | 0.00 | 47 | 1012.0 |
| 20260502180947 | 56 | 92 | 2.6 | 8.7 | 0.00 | 0.00 | 0.00 | 48 | 1012.0 |
| 20260502180849 | 56 | 69 | 2.6 | 8.7 | 0.00 | 0.00 | 0.00 | 48 | 1012.0 |
| 20260502180749 | 56 | 16 | 2.6 | 7.8 | 0.00 | 0.00 | 0.00 | 48 | 1012.1 |
| 20260502180649 | 56 | 340 | 2.6 | 7.8 | 0.00 | 0.00 | 0.00 | 49 | 1012.1 |
| 20260502180538 | 56 | 51 | 1.7 | 7.8 | 0.00 | 0.00 | 0.00 | 48 | 1012.1 |
| 20260502180437 | 56 | 350 | 2.6 | 7.8 | 0.00 | 0.00 | 0.00 | 48 | 1012.1 |
| 20260502180339 | 56 | 82 | 2.6 | 7.8 | 0.00 | 0.00 | 0.00 | 51 | 1012.0 |
| 20260502180239 | 56 | 103 | 2.6 | 7.8 | 0.00 | 0.00 | 0.00 | 49 | 1012.0 |
| 20260502180138 | 56 | 178 | 2.6 | 7.8 | 0.00 | 0.00 | 0.00 | 48 | 1012.1 |
| 20260502170453 | 53 | 98 | 2.6 | 6.1 | 0.00 | 0.00 | 0.00 | 50 | 1012.8 |
| 20260502170351 | 53 | 98 | 2.6 | 6.1 | 0.00 | 0.00 | 0.00 | 50 | 1012.9 |
| 20260502170249 | 53 | 98 | 2.6 | 7.0 | 0.00 | 0.00 | 0.00 | 50 | 1012.9 |
| 20260502170150 | 53 | 92 | 2.6 | 7.0 | 0.00 | 0.00 | 0.00 | 51 | 1013.0 |
| 20260502164337 | 52 | 54 | 2.6 | 7.0 | 0.00 | 0.00 | 0.00 | 52 | 1013.3 |
| 20260502164236 | 52 | 32 | 2.6 | 7.0 | 0.00 | 0.00 | 0.00 | 51 | 1013.4 |
| 20260502164137 | 52 | 32 | 2.6 | 7.0 | 0.00 | 0.00 | 0.00 | 51 | 1013.5 |
| 20260502164035 | 52 | 29 | 2.6 | 7.0 | 0.00 | 0.00 | 0.00 | 51 | 1013.5 |
| 20260502163937 | 52 | 36 | 2.6 | 7.0 | 0.00 | 0.00 | 0.00 | 51 | 1013.5 |
| 20260502163831 | 52 | 87 | 2.6 | 7.0 | 0.00 | 0.00 | 0.00 | 51 | 1013.5 |
| 20260502163730 | 52 | 95 | 3.5 | 7.0 | 0.00 | 0.00 | 0.00 | 51 | 1013.5 |
| 20260502163631 | 52 | 92 | 3.5 | 7.8 | 0.00 | 0.00 | 0.00 | 54 | 1013.4 |
| 20260502163530 | 52 | 72 | 3.5 | 7.8 | 0.00 | 0.00 | 0.00 | 53 | 1013.5 |
| 20260502163429 | 52 | 84 | 3.5 | 7.8 | 0.00 | 0.00 | 0.00 | 55 | 1013.5 |
| 20260502163330 | 51 | 58 | 3.5 | 7.8 | 0.00 | 0.00 | 0.00 | 56 | 1013.5 |
| 20260502163230 | 51 | 10 | 3.5 | 7.8 | 0.00 | 0.00 | 0.00 | 54 | 1013.5 |
| 20260502163131 | 51 | 355 | 3.5 | 7.8 | 0.00 | 0.00 | 0.00 | 55 | 1013.7 |
| 20260502163029 | 51 | 38 | 3.5 | 7.8 | 0.00 | 0.00 | 0.00 | 55 | 1013.7 |
| 20260502162929 | 51 | 22 | 3.5 | 7.8 | 0.00 | 0.00 | 0.00 | 54 | 1013.5 |
| 20260502162829 | 51 | 12 | 3.5 | 7.8 | 0.00 | 0.00 | 0.00 | 55 | 1013.5 |
| 20260502162731 | 51 | 341 | 2.6 | 7.8 | 0.00 | 0.00 | 0.00 | 54 | 1013.7 |
| 20260502162631 | 51 | 340 | 2.6 | 5.2 | 0.00 | 0.00 | 0.00 | 54 | 1013.7 |
| 20260502162529 | 51 | 82 | 2.6 | 5.2 | 0.00 | 0.00 | 0.00 | 54 | 1013.8 |
| 20260502162431 | 51 | 83 | 2.6 | 5.2 | 0.00 | 0.00 | 0.00 | 55 | 1013.7 |
| 20260502162328 | 51 | 41 | 2.6 | 5.2 | 0.00 | 0.00 | 0.00 | 56 | 1013.7 |
| 20260502162227 | 51 | 40 | 2.6 | 4.3 | 0.00 | 0.00 | 0.00 | 55 | 1013.8 |
| 20260502162129 | 50 | 40 | 2.6 | 4.3 | 0.00 | 0.00 | 0.00 | 55 | 1013.8 |
| 20260502162026 | 50 | 40 | 2.6 | 4.3 | 0.00 | 0.00 | 0.00 | 55 | 1013.9 |
| 20260502161926 | 50 | 342 | 2.6 | 4.3 | 0.00 | 0.00 | 0.00 | 56 | 1013.9 |
| 20260502161826 | 50 | 340 | 2.6 | 4.3 | 0.00 | 0.00 | 0.00 | 58 | 1013.9 |
| 20260502161726 | 50 | 47 | 2.6 | 4.3 | 0.00 | 0.00 | 0.00 | 58 | 1013.9 |
| 20260502161626 | 50 | 80 | 2.6 | 4.3 | 0.00 | 0.00 | 0.00 | 57 | 1013.9 |
| 20260502161525 | 50 | 80 | 2.6 | 4.3 | 0.00 | 0.00 | 0.00 | 58 | 1013.9 |
| 20260502161426 | 50 | 34 | 2.6 | 7.0 | 0.00 | 0.00 | 0.00 | 58 | 1014.0 |
| 20260502161325 | 50 | 18 | 2.6 | 7.0 | 0.00 | 0.00 | 0.00 | 57 | 1013.9 |
| 20260502161226 | 50 | 343 | 2.6 | 7.0 | 0.00 | 0.00 | 0.00 | 57 | 1014.0 |
| 20260502161126 | 50 | 343 | 2.6 | 7.0 | 0.00 | 0.00 | 0.00 | 59 | 1014.0 |
| 20260502161025 | 50 | 52 | 2.6 | 7.0 | 0.00 | 0.00 | 0.00 | 59 | 1014.0 |
| 20260502160925 | 50 | 53 | 2.6 | 7.0 | 0.00 | 0.00 | 0.00 | 59 | 1014.0 |
| 20260502160827 | 50 | 55 | 2.6 | 7.0 | 0.00 | 0.00 | 0.00 | 58 | 1014.0 |
| 20260502160725 | 50 | 31 | 2.6 | 7.0 | 0.00 | 0.00 | 0.00 | 58 | 1014.0 |
| 20260502160626 | 50 | 333 | 2.6 | 7.0 | 0.00 | 0.00 | 0.00 | 58 | 1014.1 |
| 20260502160526 | 50 | 313 | 2.6 | 7.0 | 0.00 | 0.00 | 0.00 | 59 | 1014.1 |
| 20260502160426 | 50 | 305 | 2.6 | 6.1 | 0.00 | 0.00 | 0.00 | 58 | 1014.0 |
| 20260502160326 | 50 | 24 | 2.6 | 6.1 | 0.00 | 0.00 | 0.00 | 56 | 1014.0 |
| 20260502160225 | 50 | 23 | 2.6 | 7.8 | 0.00 | 0.00 | 0.00 | 56 | 1013.9 |
| 20260502160126 | 50 | 340 | 2.6 | 7.8 | 0.00 | 0.00 | 0.00 | 56 | 1014.0 |
| 20260502152322 | 48 | 11 | 2.6 | 6.1 | 0.00 | 0.00 | 0.00 | 61 | 1014.0 |
| 20260502152221 | 48 | 18 | 2.6 | 6.1 | 0.00 | 0.00 | 0.00 | 63 | 1014.0 |
| 20260502152122 | 48 | 53 | 2.6 | 5.2 | 0.00 | 0.00 | 0.00 | 62 | 1014.0 |
| 20260502152022 | 48 | 40 | 2.6 | 5.2 | 0.00 | 0.00 | 0.00 | 63 | 1014.0 |
| 20260502151921 | 48 | 341 | 2.6 | 5.2 | 0.00 | 0.00 | 0.00 | 62 | 1014.0 |
| 20260502151821 | 48 | 324 | 2.6 | 5.2 | 0.00 | 0.00 | 0.00 | 62 | 1014.0 |
| 20260502151721 | 48 | 63 | 1.7 | 5.2 | 0.00 | 0.00 | 0.00 | 62 | 1014.0 |
| 20260502151622 | 48 | 20 | 2.6 | 5.2 | 0.00 | 0.00 | 0.00 | 61 | 1014.0 |
| 20260502151521 | 48 | 43 | 2.6 | 5.2 | 0.00 | 0.00 | 0.00 | 62 | 1014.0 |
| 20260502151422 | 48 | 329 | 2.6 | 5.2 | 0.00 | 0.00 | 0.00 | 62 | 1014.0 |
| 20260502151317 | 48 | 20 | 1.7 | 4.3 | 0.00 | 0.00 | 0.00 | 63 | 1014.0 |
| 20260502151217 | 48 | 29 | 1.7 | 4.3 | 0.00 | 0.00 | 0.00 | 64 | 1014.0 |
| 20260502151118 | 48 | 0 | 2.6 | 4.3 | 0.00 | 0.00 | 0.00 | 63 | 1014.0 |
| 20260502151017 | 48 | 5 | 2.6 | 4.3 | 0.00 | 0.00 | 0.00 | 63 | 1014.1 |
| 20260502150917 | 48 | 5 | 2.6 | 4.3 | 0.00 | 0.00 | 0.00 | 63 | 1014.0 |
| 20260502150819 | 48 | 17 | 2.6 | 4.3 | 0.00 | 0.00 | 0.00 | 62 | 1014.0 |
| 20260502150718 | 48 | 17 | 1.7 | 4.3 | 0.00 | 0.00 | 0.00 | 61 | 1014.0 |
| 20260502150618 | 48 | 355 | 1.7 | 4.3 | 0.00 | 0.00 | 0.00 | 62 | 1014.0 |
| 20260502150519 | 48 | 350 | 1.7 | 4.3 | 0.00 | 0.00 | 0.00 | 62 | 1014.0 |
| 20260502150419 | 48 | 26 | 1.7 | 4.3 | 0.00 | 0.00 | 0.00 | 62 | 1014.0 |
| 20260502150317 | 48 | 35 | 1.7 | 4.3 | 0.00 | 0.00 | 0.00 | 61 | 1014.0 |
| 20260502150217 | 48 | 9 | 1.7 | 4.3 | 0.00 | 0.00 | 0.00 | 61 | 1014.0 |
| 20260502150118 | 48 | 28 | 1.7 | 4.3 | 0.00 | 0.00 | 0.00 | 61 | 1014.1 |
| 20260502130656 | 48 | 342 | 5.2 | 8.7 | 0.00 | 0.00 | 0.00 | 71 | 1013.3 |
| 20260502130555 | 48 | 313 | 4.3 | 8.7 | 0.00 | 0.00 | 0.00 | 70 | 1013.3 |
| 20260502130456 | 48 | 323 | 4.3 | 8.7 | 0.00 | 0.00 | 0.00 | 70 | 1013.4 |
| 20260502130349 | 48 | 323 | 4.3 | 8.7 | 0.00 | 0.00 | 0.00 | 71 | 1013.4 |
| 20260502130249 | 48 | 300 | 4.3 | 8.7 | 0.00 | 0.00 | 0.00 | 71 | 1013.4 |
| 20260502130149 | 48 | 313 | 4.3 | 8.7 | 0.00 | 0.00 | 0.00 | 70 | 1013.4 |
| 20260502123811 | 48 | 326 | 3.5 | 6.1 | 0.00 | 0.00 | 0.00 | 74 | 1013.1 |
| 20260502123709 | 48 | 312 | 3.5 | 6.1 | 0.00 | 0.00 | 0.00 | 74 | 1012.9 |
| 20260502123609 | 48 | 309 | 3.5 | 6.1 | 0.00 | 0.00 | 0.00 | 74 | 1012.9 |
| 20260502123511 | 48 | 309 | 3.5 | 6.1 | 0.00 | 0.00 | 0.00 | 74 | 1012.9 |
| 20260502123409 | 48 | 343 | 3.5 | 6.1 | 0.00 | 0.00 | 0.00 | 73 | 1013.1 |
| 20260502123304 | 48 | 355 | 3.5 | 6.1 | 0.00 | 0.00 | 0.00 | 72 | 1013.1 |
| 20260502123203 | 48 | 350 | 3.5 | 6.1 | 0.00 | 0.00 | 0.00 | 72 | 1013.2 |
| 20260502123104 | 48 | 306 | 3.5 | 6.1 | 0.00 | 0.00 | 0.00 | 73 | 1013.1 |
| 20260502123004 | 48 | 292 | 3.5 | 6.1 | 0.00 | 0.00 | 0.00 | 75 | 1013.1 |
| 20260502122904 | 48 | 309 | 3.5 | 6.1 | 0.00 | 0.00 | 0.00 | 75 | 1013.1 |
| 20260502122754 | 48 | 286 | 3.5 | 6.1 | 0.00 | 0.00 | 0.00 | 76 | 1013.1 |
| 20260502122653 | 48 | 333 | 2.6 | 6.1 | 0.00 | 0.00 | 0.00 | 75 | 1013.2 |
| 20260502122554 | 48 | 325 | 2.6 | 6.1 | 0.00 | 0.00 | 0.00 | 75 | 1013.1 |
| 20260502122454 | 48 | 338 | 2.6 | 6.1 | 0.00 | 0.00 | 0.00 | 74 | 1013.2 |
| 20260502122353 | 48 | 313 | 2.6 | 6.1 | 0.00 | 0.00 | 0.00 | 75 | 1013.2 |
| 20260502122246 | 48 | 322 | 2.6 | 6.1 | 0.00 | 0.00 | 0.00 | 75 | 1013.2 |
| 20260502122145 | 48 | 340 | 2.6 | 6.1 | 0.00 | 0.00 | 0.00 | 75 | 1013.2 |
| 20260502122046 | 48 | 321 | 2.6 | 6.1 | 0.00 | 0.00 | 0.00 | 76 | 1013.2 |
| 20260502121945 | 48 | 308 | 2.6 | 6.1 | 0.00 | 0.00 | 0.00 | 75 | 1013.2 |
| 20260502121846 | 48 | 303 | 2.6 | 4.3 | 0.00 | 0.00 | 0.00 | 75 | 1013.2 |
| 20260502121743 | 48 | 325 | 2.6 | 4.3 | 0.00 | 0.00 | 0.00 | 75 | 1013.2 |
| 20260502121641 | 48 | 309 | 2.6 | 4.3 | 0.00 | 0.00 | 0.00 | 74 | 1013.3 |
| 20260502121539 | 48 | 305 | 2.6 | 8.7 | 0.00 | 0.00 | 0.00 | 75 | 1013.2 |
| 20260502121440 | 48 | 306 | 2.6 | 8.7 | 0.00 | 0.00 | 0.00 | 75 | 1013.1 |
| 20260502121340 | 48 | 11 | 2.6 | 8.7 | 0.00 | 0.00 | 0.00 | 75 | 1013.0 |
| 20260502121233 | 48 | 343 | 2.6 | 8.7 | 0.00 | 0.00 | 0.00 | 74 | 1012.9 |
| 20260502121134 | 48 | 343 | 2.6 | 8.7 | 0.00 | 0.00 | 0.00 | 74 | 1012.9 |
| 20260502121033 | 48 | 330 | 2.6 | 8.7 | 0.00 | 0.00 | 0.00 | 74 | 1012.9 |
| 20260502120932 | 48 | 329 | 2.6 | 8.7 | 0.00 | 0.00 | 0.00 | 74 | 1012.8 |
| 20260502120830 | 48 | 329 | 3.5 | 8.7 | 0.00 | 0.00 | 0.00 | 74 | 1012.8 |
| 20260502120727 | 48 | 334 | 3.5 | 8.7 | 0.00 | 0.00 | 0.00 | 73 | 1012.8 |
| 20260502120629 | 48 | 318 | 3.5 | 8.7 | 0.00 | 0.00 | 0.00 | 73 | 1012.7 |
| 20260502120525 | 48 | 323 | 3.5 | 8.7 | 0.00 | 0.00 | 0.00 | 73 | 1012.6 |
| 20260502120426 | 48 | 315 | 3.5 | 8.7 | 0.00 | 0.00 | 0.00 | 73 | 1012.8 |
| 20260502120324 | 48 | 329 | 3.5 | 8.7 | 0.00 | 0.00 | 0.00 | 73 | 1012.8 |
| 20260502120217 | 48 | 11 | 3.5 | 8.7 | 0.00 | 0.00 | 0.00 | 73 | 1012.8 |
| 20260502120118 | 48 | 335 | 3.5 | 8.7 | 0.00 | 0.00 | 0.00 | 73 | 1012.6 |
| 20260502115917 | 48 | 355 | 3.5 | 8.7 | 0.00 | 0.00 | 0.00 | 73 | 1012.9 |
| 20260502115818 | 48 | 355 | 3.5 | 8.7 | 0.00 | 0.00 | 0.00 | 73 | 1012.9 |
| 20260502115707 | 48 | 313 | 3.5 | 8.7 | 0.00 | 0.00 | 0.00 | 74 | 1012.8 |
| 20260502115607 | 48 | 317 | 3.5 | 7.8 | 0.00 | 0.00 | 0.00 | 74 | 1012.8 |
| 20260502115508 | 48 | 341 | 3.5 | 7.8 | 0.00 | 0.00 | 0.00 | 73 | 1012.9 |
| 20260502115406 | 48 | 350 | 3.5 | 8.7 | 0.00 | 0.00 | 0.00 | 73 | 1012.8 |
| 20260502115308 | 48 | 346 | 3.5 | 8.7 | 0.00 | 0.00 | 0.00 | 74 | 1012.8 |
| 20260502115201 | 48 | 343 | 3.5 | 8.7 | 0.00 | 0.00 | 0.00 | 75 | 1012.8 |
| 20260502115101 | 48 | 310 | 3.5 | 8.7 | 0.00 | 0.00 | 0.00 | 75 | 1012.8 |
| 20260502115001 | 48 | 0 | 4.3 | 8.7 | 0.00 | 0.00 | 0.00 | 75 | 1012.9 |
| 20260502114901 | 48 | 0 | 4.3 | 8.7 | 0.00 | 0.00 | 0.00 | 74 | 1012.8 |
| 20260502114801 | 48 | 0 | 4.3 | 8.7 | 0.00 | 0.00 | 0.00 | 75 | 1013.0 |
| 20260502114655 | 48 | 5 | 4.3 | 8.7 | 0.00 | 0.00 | 0.00 | 76 | 1013.0 |
| 20260502114555 | 48 | 327 | 4.3 | 8.7 | 0.00 | 0.00 | 0.00 | 76 | 1013.2 |
| 20260502114455 | 48 | 313 | 4.3 | 7.8 | 0.00 | 0.00 | 0.00 | 77 | 1013.0 |
| 20260502114355 | 48 | 344 | 4.3 | 7.8 | 0.00 | 0.00 | 0.00 | 77 | 1013.0 |
| 20260502114256 | 48 | 284 | 4.3 | 7.8 | 0.00 | 0.00 | 0.00 | 77 | 1012.9 |
| 20260502114147 | 48 | 329 | 3.5 | 7.8 | 0.00 | 0.00 | 0.00 | 77 | 1012.9 |
| 20260502114045 | 48 | 326 | 3.5 | 7.8 | 0.00 | 0.00 | 0.00 | 77 | 1012.9 |
| 20260502113946 | 48 | 307 | 3.5 | 7.8 | 0.00 | 0.00 | 0.00 | 77 | 1012.9 |
| 20260502113846 | 48 | 309 | 3.5 | 7.8 | 0.00 | 0.00 | 0.00 | 77 | 1012.9 |
| 20260502113746 | 48 | 348 | 3.5 | 7.8 | 0.00 | 0.00 | 0.00 | 77 | 1012.8 |
| 20260502113640 | 48 | 351 | 3.5 | 7.0 | 0.00 | 0.00 | 0.00 | 77 | 1012.9 |
| 20260502113539 | 48 | 355 | 3.5 | 7.0 | 0.00 | 0.00 | 0.00 | 77 | 1012.9 |
| 20260502113440 | 48 | 339 | 3.5 | 7.8 | 0.00 | 0.00 | 0.00 | 77 | 1012.9 |
| 20260502113339 | 48 | 320 | 3.5 | 7.8 | 0.00 | 0.00 | 0.00 | 77 | 1012.9 |
| 20260502113240 | 48 | 318 | 3.5 | 7.8 | 0.00 | 0.00 | 0.00 | 77 | 1012.9 |
| 20260502113134 | 48 | 304 | 4.3 | 7.8 | 0.00 | 0.00 | 0.00 | 77 | 1012.9 |
| 20260502113034 | 48 | 335 | 4.3 | 7.8 | 0.00 | 0.00 | 0.00 | 77 | 1012.9 |
| 20260502112934 | 48 | 330 | 4.3 | 7.8 | 0.00 | 0.00 | 0.00 | 78 | 1013.0 |
| 20260502112833 | 48 | 322 | 4.3 | 7.8 | 0.00 | 0.00 | 0.00 | 77 | 1012.8 |
| 20260502112733 | 48 | 310 | 3.5 | 7.8 | 0.00 | 0.00 | 0.00 | 78 | 1012.9 |
| 20260502112623 | 48 | 301 | 3.5 | 7.8 | 0.00 | 0.00 | 0.00 | 77 | 1012.9 |
| 20260502112524 | 48 | 317 | 3.5 | 7.8 | 0.00 | 0.00 | 0.00 | 77 | 1012.9 |
| 20260502112424 | 48 | 325 | 3.5 | 7.8 | 0.00 | 0.00 | 0.00 | 77 | 1012.8 |
| 20260502112323 | 48 | 311 | 3.5 | 6.1 | 0.00 | 0.00 | 0.00 | 78 | 1012.8 |
| 20260502112234 | 48 | 319 | 3.5 | 6.1 | 0.00 | 0.00 | 0.00 | 78 | 1012.7 |
| 20260502112118 | 48 | 306 | 3.5 | 6.1 | 0.00 | 0.00 | 0.00 | 78 | 1012.7 |
| 20260502112018 | 48 | 355 | 3.5 | 6.1 | 0.00 | 0.00 | 0.00 | 78 | 1012.8 |
| 20260502111917 | 48 | 319 | 3.5 | 6.1 | 0.00 | 0.00 | 0.00 | 78 | 1012.8 |
| 20260502111818 | 48 | 313 | 3.5 | 6.1 | 0.00 | 0.00 | 0.00 | 78 | 1012.8 |
| 20260502111717 | 48 | 313 | 3.5 | 6.1 | 0.00 | 0.00 | 0.00 | 78 | 1012.8 |
| 20260502111612 | 48 | 338 | 3.5 | 6.1 | 0.00 | 0.00 | 0.00 | 78 | 1012.8 |
| 20260502111511 | 48 | 297 | 3.5 | 6.1 | 0.00 | 0.00 | 0.00 | 78 | 1012.9 |
| 20260502111412 | 48 | 313 | 3.5 | 6.1 | 0.00 | 0.00 | 0.00 | 78 | 1012.9 |
| 20260502111310 | 48 | 315 | 3.5 | 6.1 | 0.00 | 0.00 | 0.00 | 78 | 1012.8 |
| 20260502111212 | 48 | 302 | 2.6 | 7.0 | 0.00 | 0.00 | 0.00 | 77 | 1012.6 |
| 20260502111102 | 48 | 348 | 3.5 | 7.0 | 0.00 | 0.00 | 0.00 | 77 | 1012.7 |
| 20260502111002 | 48 | 325 | 3.5 | 7.8 | 0.00 | 0.00 | 0.00 | 77 | 1012.6 |
| 20260502110902 | 48 | 309 | 3.5 | 7.8 | 0.00 | 0.00 | 0.00 | 77 | 1012.7 |
| 20260502110800 | 48 | 331 | 3.5 | 7.8 | 0.00 | 0.00 | 0.00 | 77 | 1012.7 |
| 20260502110701 | 48 | 327 | 4.3 | 7.8 | 0.00 | 0.00 | 0.00 | 77 | 1012.7 |
| 20260502110558 | 48 | 355 | 4.3 | 7.8 | 0.00 | 0.00 | 0.00 | 77 | 1012.7 |
| 20260502110456 | 48 | 355 | 4.3 | 8.7 | 0.00 | 0.00 | 0.00 | 77 | 1012.7 |
| 20260502110354 | 48 | 355 | 4.3 | 8.7 | 0.00 | 0.00 | 0.00 | 77 | 1012.8 |
| 20260502110258 | 48 | 5 | 4.3 | 8.7 | 0.00 | 0.00 | 0.00 | 77 | 1012.8 |
| 20260502110156 | 48 | 355 | 5.2 | 8.7 | 0.00 | 0.00 | 0.00 | 77 | 1012.8 |
| 20260502110052 | 48 | 339 | 5.2 | 8.7 | 0.00 | 0.00 | 0.00 | 77 | 1012.8 |
| 20260502105950 | 48 | 311 | 5.2 | 8.7 | 0.00 | 0.00 | 0.00 | 76 | 1012.8 |
| 20260502105850 | 48 | 344 | 4.3 | 8.7 | 0.00 | 0.00 | 0.00 | 76 | 1012.8 |
| 20260502105749 | 48 | 339 | 4.3 | 8.7 | 0.00 | 0.00 | 0.00 | 77 | 1012.7 |
| 20260502105649 | 48 | 307 | 4.3 | 8.7 | 0.00 | 0.00 | 0.00 | 77 | 1012.8 |
| 20260502105540 | 48 | 318 | 4.3 | 7.8 | 0.00 | 0.00 | 0.00 | 77 | 1012.6 |
| 20260502105440 | 48 | 355 | 4.3 | 7.8 | 0.00 | 0.00 | 0.00 | 77 | 1012.6 |
| 20260502105340 | 48 | 355 | 4.3 | 7.8 | 0.00 | 0.00 | 0.00 | 77 | 1012.5 |
| 20260502105238 | 48 | 321 | 4.3 | 7.8 | 0.00 | 0.00 | 0.00 | 77 | 1012.5 |
| 20260502105139 | 48 | 326 | 4.3 | 7.8 | 0.00 | 0.00 | 0.00 | 77 | 1012.4 |
| 20260502105035 | 48 | 355 | 4.3 | 7.8 | 0.00 | 0.00 | 0.00 | 77 | 1012.4 |
| 20260502104934 | 48 | 341 | 4.3 | 7.8 | 0.00 | 0.00 | 0.00 | 78 | 1012.4 |
| 20260502104834 | 48 | 345 | 4.3 | 7.8 | 0.00 | 0.00 | 0.00 | 78 | 1012.4 |
| 20260502104734 | 48 | 313 | 4.3 | 7.8 | 0.00 | 0.00 | 0.00 | 78 | 1012.5 |
| 20260502104633 | 48 | 338 | 4.3 | 7.8 | 0.00 | 0.00 | 0.00 | 78 | 1012.6 |
| 20260502104528 | 48 | 297 | 4.3 | 7.8 | 0.00 | 0.00 | 0.00 | 77 | 1012.6 |
| 20260502104430 | 48 | 325 | 4.3 | 7.8 | 0.00 | 0.00 | 0.00 | 78 | 1012.6 |
| 20260502104329 | 48 | 331 | 4.3 | 7.8 | 0.00 | 0.00 | 0.00 | 78 | 1012.6 |
| 20260502104229 | 48 | 349 | 3.5 | 7.8 | 0.00 | 0.00 | 0.00 | 78 | 1012.6 |
| 20260502104128 | 48 | 325 | 3.5 | 7.8 | 0.00 | 0.00 | 0.00 | 79 | 1012.6 |
| 20260502104021 | 48 | 329 | 3.5 | 7.8 | 0.00 | 0.00 | 0.00 | 78 | 1012.5 |
| 20260502103922 | 48 | 355 | 3.5 | 7.8 | 0.00 | 0.00 | 0.00 | 79 | 1012.5 |
| 20260502103819 | 48 | 319 | 3.5 | 7.8 | 0.00 | 0.00 | 0.00 | 78 | 1012.4 |
| 20260502103718 | 48 | 322 | 3.5 | 6.1 | 0.00 | 0.00 | 0.00 | 78 | 1012.4 |
| 20260502103618 | 48 | 311 | 2.6 | 6.1 | 0.00 | 0.00 | 0.00 | 78 | 1012.5 |
| 20260502103513 | 48 | 311 | 2.6 | 6.1 | 0.00 | 0.00 | 0.00 | 78 | 1012.4 |
| 20260502103413 | 48 | 15 | 2.6 | 6.1 | 0.00 | 0.00 | 0.00 | 78 | 1012.4 |
| 20260502103313 | 48 | 34 | 2.6 | 4.3 | 0.00 | 0.00 | 0.00 | 78 | 1012.4 |
| 20260502103214 | 48 | 355 | 2.6 | 4.3 | 0.00 | 0.00 | 0.00 | 78 | 1012.4 |
| 20260502103111 | 48 | 0 | 2.6 | 4.3 | 0.00 | 0.00 | 0.00 | 78 | 1012.3 |
| 20260502103008 | 48 | 351 | 2.6 | 4.3 | 0.00 | 0.00 | 0.00 | 79 | 1012.3 |
| 20260502102905 | 48 | 355 | 2.6 | 4.3 | 0.00 | 0.00 | 0.00 | 79 | 1012.3 |
| 20260502102806 | 48 | 323 | 2.6 | 6.1 | 0.00 | 0.00 | 0.00 | 79 | 1012.4 |
| 20260502102706 | 48 | 313 | 2.6 | 6.1 | 0.00 | 0.00 | 0.00 | 79 | 1012.4 |
| 20260502102605 | 48 | 308 | 2.6 | 6.1 | 0.00 | 0.00 | 0.00 | 78 | 1012.4 |
| 20260502102455 | 48 | 331 | 3.5 | 6.1 | 0.00 | 0.00 | 0.00 | 79 | 1012.4 |
| 20260502102355 | 48 | 327 | 3.5 | 6.1 | 0.00 | 0.00 | 0.00 | 78 | 1012.4 |
| 20260502102256 | 48 | 332 | 3.5 | 6.1 | 0.00 | 0.00 | 0.00 | 78 | 1012.4 |
| 20260502102155 | 48 | 332 | 3.5 | 6.1 | 0.00 | 0.00 | 0.00 | 78 | 1012.4 |
| 20260502102055 | 48 | 333 | 3.5 | 6.1 | 0.00 | 0.00 | 0.00 | 78 | 1012.4 |
| 20260502101952 | 48 | 326 | 2.6 | 6.1 | 0.00 | 0.00 | 0.00 | 78 | 1012.4 |
| 20260502101848 | 48 | 306 | 2.6 | 6.1 | 0.00 | 0.00 | 0.00 | 78 | 1012.3 |
| 20260502101749 | 49 | 325 | 2.6 | 5.2 | 0.00 | 0.00 | 0.00 | 78 | 1012.3 |
| 20260502101649 | 49 | 310 | 2.6 | 5.2 | 0.00 | 0.00 | 0.00 | 78 | 1012.2 |
| 20260502101549 | 49 | 333 | 2.6 | 5.2 | 0.00 | 0.00 | 0.00 | 78 | 1012.2 |
| 20260502101444 | 49 | 331 | 2.6 | 5.2 | 0.00 | 0.00 | 0.00 | 78 | 1012.3 |
| 20260502101342 | 49 | 355 | 2.6 | 5.2 | 0.00 | 0.00 | 0.00 | 78 | 1012.2 |
| 20260502101244 | 49 | 355 | 2.6 | 5.2 | 0.00 | 0.00 | 0.00 | 78 | 1012.3 |
| 20260502101144 | 49 | 341 | 2.6 | 5.2 | 0.00 | 0.00 | 0.00 | 78 | 1012.3 |
| 20260502101044 | 49 | 338 | 2.6 | 5.2 | 0.00 | 0.00 | 0.00 | 78 | 1012.3 |
| 20260502100935 | 49 | 333 | 2.6 | 5.2 | 0.00 | 0.00 | 0.00 | 78 | 1012.3 |
| 20260502100835 | 49 | 355 | 2.6 | 5.2 | 0.00 | 0.00 | 0.00 | 78 | 1012.2 |
| 20260502100735 | 49 | 325 | 3.5 | 7.8 | 0.00 | 0.00 | 0.00 | 78 | 1012.2 |
| 20260502100636 | 49 | 310 | 3.5 | 7.8 | 0.00 | 0.00 | 0.00 | 78 | 1012.3 |
| 20260502100534 | 49 | 327 | 3.5 | 7.8 | 0.00 | 0.00 | 0.00 | 78 | 1012.4 |
| 20260502100433 | 49 | 328 | 3.5 | 7.8 | 0.00 | 0.00 | 0.00 | 78 | 1012.4 |
| 20260502100330 | 49 | 313 | 4.3 | 7.8 | 0.00 | 0.00 | 0.00 | 77 | 1012.5 |
| 20260502100230 | 49 | 300 | 4.3 | 7.8 | 0.00 | 0.00 | 0.00 | 78 | 1012.5 |
| 20260502100130 | 49 | 328 | 4.3 | 7.8 | 0.00 | 0.00 | 0.00 | 77 | 1012.5 |
| 20260502091522 | 49 | 318 | 4.3 | 7.0 | 0.00 | 0.00 | 0.00 | 78 | 1012.9 |
| 20260502091422 | 49 | 328 | 4.3 | 7.0 | 0.00 | 0.00 | 0.00 | 78 | 1012.9 |
| 20260502091322 | 49 | 325 | 3.5 | 7.0 | 0.00 | 0.00 | 0.00 | 79 | 1012.9 |
| 20260502091218 | 49 | 293 | 3.5 | 7.0 | 0.00 | 0.00 | 0.00 | 79 | 1012.9 |
| 20260502091117 | 49 | 299 | 3.5 | 7.0 | 0.00 | 0.00 | 0.00 | 79 | 1012.9 |
| 20260502091018 | 49 | 299 | 3.5 | 6.1 | 0.00 | 0.00 | 0.00 | 79 | 1013.0 |
| 20260502090915 | 49 | 318 | 3.5 | 6.1 | 0.00 | 0.00 | 0.00 | 79 | 1013.0 |
| 20260502090804 | 49 | 317 | 3.5 | 6.1 | 0.00 | 0.00 | 0.00 | 79 | 1013.0 |
| 20260502090706 | 50 | 328 | 3.5 | 6.1 | 0.00 | 0.00 | 0.00 | 79 | 1012.9 |
| 20260502090606 | 50 | 338 | 3.5 | 6.1 | 0.00 | 0.00 | 0.00 | 79 | 1012.9 |
| 20260502090505 | 50 | 312 | 3.5 | 7.0 | 0.00 | 0.00 | 0.00 | 79 | 1012.9 |
| 20260502090405 | 50 | 321 | 3.5 | 7.8 | 0.00 | 0.00 | 0.00 | 79 | 1012.8 |
| 20260502090302 | 50 | 309 | 3.5 | 7.8 | 0.00 | 0.00 | 0.00 | 79 | 1012.8 |
| 20260502090200 | 50 | 331 | 3.5 | 7.8 | 0.00 | 0.00 | 0.00 | 79 | 1012.6 |
| 20260502071525 | 51 | 337 | 2.6 | 7.0 | 0.00 | 0.00 | 0.00 | 80 | 1012.2 |
| 20260502071424 | 51 | 332 | 2.6 | 7.0 | 0.00 | 0.00 | 0.00 | 80 | 1012.1 |
| 20260502071325 | 51 | 311 | 2.6 | 7.0 | 0.00 | 0.00 | 0.00 | 80 | 1012.1 |
| 20260502071226 | 51 | 327 | 2.6 | 7.0 | 0.00 | 0.00 | 0.00 | 80 | 1012.1 |
| 20260502071125 | 51 | 341 | 2.6 | 7.0 | 0.00 | 0.00 | 0.00 | 80 | 1012.0 |
| 20260502071021 | 51 | 323 | 1.7 | 4.3 | 0.00 | 0.00 | 0.00 | 80 | 1012.0 |
| 20260502070919 | 51 | 348 | 1.7 | 4.3 | 0.00 | 0.00 | 0.00 | 80 | 1012.0 |
| 20260502070818 | 51 | 333 | 1.7 | 4.3 | 0.00 | 0.00 | 0.00 | 80 | 1011.8 |
| 20260502070720 | 51 | 329 | 1.7 | 4.3 | 0.00 | 0.00 | 0.00 | 80 | 1012.0 |
| 20260502070619 | 51 | 326 | 1.7 | 4.3 | 0.00 | 0.00 | 0.00 | 80 | 1011.8 |
| 20260502070509 | 51 | 327 | 1.7 | 4.3 | 0.00 | 0.00 | 0.00 | 80 | 1011.8 |
| 20260502070408 | 51 | 323 | 1.7 | 4.3 | 0.00 | 0.00 | 0.00 | 80 | 1011.8 |
| 20260502070310 | 51 | 344 | 1.7 | 4.3 | 0.00 | 0.00 | 0.00 | 80 | 1011.7 |
| 20260502070210 | 51 | 346 | 1.7 | 4.3 | 0.00 | 0.00 | 0.00 | 80 | 1011.8 |
| 20260502070110 | 51 | 346 | 1.7 | 4.3 | 0.00 | 0.00 | 0.00 | 80 | 1012.0 |
| 20260502070002 | 51 | 11 | 1.7 | 3.5 | 0.00 | 0.00 | 0.00 | 80 | 1012.0 |
| 20260502065903 | 51 | 13 | 1.7 | 3.5 | 0.00 | 0.00 | 0.00 | 81 | 1012.0 |
| 20260502065803 | 51 | 12 | 1.7 | 2.6 | 0.00 | 0.00 | 0.00 | 81 | 1011.8 |
| 20260502065704 | 51 | 12 | 1.7 | 2.6 | 0.00 | 0.00 | 0.00 | 80 | 1011.8 |
| 20260502065604 | 51 | 14 | 1.7 | 2.6 | 0.00 | 0.00 | 0.00 | 80 | 1011.8 |
| 20260502065503 | 51 | 14 | 1.7 | 2.6 | 0.00 | 0.00 | 0.00 | 80 | 1011.8 |
| 20260502065402 | 51 | 14 | 1.7 | 2.6 | 0.00 | 0.00 | 0.00 | 80 | 1011.8 |
| 20260502065306 | 51 | 5 | 1.7 | 2.6 | 0.00 | 0.00 | 0.00 | 80 | 1011.8 |
| 20260502065203 | 51 | 5 | 1.7 | 2.6 | 0.00 | 0.00 | 0.00 | 81 | 1012.0 |
| 20260502065103 | 51 | 15 | 0.9 | 2.6 | 0.00 | 0.00 | 0.00 | 80 | 1012.0 |
| 20260502065004 | 51 | 15 | 0.9 | 2.6 | 0.00 | 0.00 | 0.00 | 80 | 1012.0 |
| 20260502064903 | 51 | 15 | 0.9 | 2.6 | 0.00 | 0.00 | 0.00 | 81 | 1012.0 |
| 20260502064802 | 51 | 15 | 0.9 | 2.6 | 0.00 | 0.00 | 0.00 | 81 | 1012.0 |
| 20260502064702 | 51 | 14 | 0.9 | 2.6 | 0.00 | 0.00 | 0.00 | 81 | 1012.0 |
| 20260502064602 | 51 | 14 | 0.9 | 2.6 | 0.00 | 0.00 | 0.00 | 81 | 1012.1 |
| 20260502064503 | 51 | 14 | 0.9 | 2.6 | 0.00 | 0.00 | 0.00 | 81 | 1012.1 |
| 20260502064404 | 51 | 14 | 0.9 | 2.6 | 0.00 | 0.00 | 0.00 | 81 | 1012.1 |
| 20260502064300 | 51 | 14 | 0.9 | 3.5 | 0.00 | 0.00 | 0.00 | 81 | 1012.2 |
| 20260502064156 | 51 | 14 | 1.7 | 3.5 | 0.00 | 0.00 | 0.00 | 81 | 1012.2 |
| 20260502064056 | 51 | 14 | 1.7 | 3.5 | 0.00 | 0.00 | 0.00 | 81 | 1012.2 |
| 20260502063957 | 51 | 14 | 1.7 | 3.5 | 0.00 | 0.00 | 0.00 | 81 | 1012.2 |
| 20260502063857 | 51 | 14 | 1.7 | 3.5 | 0.00 | 0.00 | 0.00 | 81 | 1012.2 |
| 20260502063754 | 51 | 5 | 1.7 | 3.5 | 0.00 | 0.00 | 0.00 | 81 | 1012.1 |
| 20260502063650 | 51 | 38 | 1.7 | 3.5 | 0.00 | 0.00 | 0.00 | 81 | 1012.2 |
| 20260502063551 | 51 | 38 | 0.9 | 3.5 | 0.00 | 0.00 | 0.00 | 81 | 1012.2 |
| 20260502063450 | 51 | 38 | 0.9 | 3.5 | 0.00 | 0.00 | 0.00 | 81 | 1012.2 |
| 20260502063348 | 51 | 38 | 0.9 | 3.5 | 0.00 | 0.00 | 0.00 | 81 | 1012.3 |
| 20260502063249 | 51 | 11 | 0.9 | 2.6 | 0.00 | 0.00 | 0.00 | 81 | 1012.2 |
| 20260502063149 | 51 | 5 | 0.9 | 2.6 | 0.00 | 0.00 | 0.00 | 81 | 1012.2 |
| 20260502063048 | 51 | 5 | 0.9 | 2.6 | 0.00 | 0.00 | 0.00 | 81 | 1012.3 |
| 20260502062946 | 51 | 5 | 0.9 | 4.3 | 0.00 | 0.00 | 0.00 | 81 | 1012.4 |
| 20260502062848 | 51 | 5 | 0.9 | 4.3 | 0.00 | 0.00 | 0.00 | 81 | 1012.4 |
| 20260502062746 | 51 | 5 | 0.9 | 4.3 | 0.00 | 0.00 | 0.00 | 81 | 1012.4 |
| 20260502062646 | 51 | 9 | 1.7 | 4.3 | 0.00 | 0.00 | 0.00 | 80 | 1012.4 |
| 20260502062548 | 52 | 10 | 1.7 | 4.3 | 0.00 | 0.00 | 0.00 | 80 | 1012.4 |
| 20260502062446 | 52 | 10 | 1.7 | 4.3 | 0.00 | 0.00 | 0.00 | 80 | 1012.4 |
| 20260502062342 | 52 | 0 | 2.6 | 4.3 | 0.00 | 0.00 | 0.00 | 80 | 1012.5 |
| 20260502062243 | 52 | 0 | 2.6 | 7.0 | 0.00 | 0.00 | 0.00 | 80 | 1012.4 |
| 20260502062143 | 52 | 10 | 2.6 | 7.0 | 0.00 | 0.00 | 0.00 | 80 | 1012.4 |
| 20260502062043 | 52 | 5 | 3.5 | 7.0 | 0.00 | 0.00 | 0.00 | 80 | 1012.5 |
| 20260502061942 | 52 | 0 | 3.5 | 10.4 | 0.00 | 0.00 | 0.00 | 80 | 1012.5 |
| 20260502061841 | 52 | 5 | 3.5 | 10.4 | 0.00 | 0.00 | 0.00 | 80 | 1012.5 |
| 20260502061741 | 52 | 18 | 4.3 | 10.4 | 0.00 | 0.00 | 0.00 | 80 | 1012.6 |
| 20260502061641 | 52 | 5 | 4.3 | 10.4 | 0.00 | 0.00 | 0.00 | 80 | 1012.5 |
| 20260502061540 | 52 | 5 | 4.3 | 10.4 | 0.00 | 0.00 | 0.00 | 80 | 1012.6 |
| 20260502061439 | 52 | 355 | 4.3 | 10.4 | 0.00 | 0.00 | 0.00 | 80 | 1012.5 |
| 20260502061339 | 52 | 329 | 5.2 | 10.4 | 0.00 | 0.00 | 0.00 | 80 | 1012.6 |
| 20260502061239 | 52 | 318 | 5.2 | 10.4 | 0.00 | 0.00 | 0.00 | 80 | 1012.6 |
| 20260502061139 | 52 | 334 | 5.2 | 10.4 | 0.00 | 0.00 | 0.00 | 80 | 1012.6 |
| 20260502061038 | 52 | 333 | 5.2 | 10.4 | 0.00 | 0.00 | 0.00 | 80 | 1012.6 |
| 20260502060940 | 52 | 317 | 5.2 | 8.7 | 0.00 | 0.00 | 0.00 | 80 | 1012.6 |
| 20260502060838 | 52 | 329 | 5.2 | 8.7 | 0.00 | 0.00 | 0.00 | 80 | 1012.6 |
| 20260502060739 | 52 | 338 | 5.2 | 8.7 | 0.00 | 0.00 | 0.00 | 80 | 1012.6 |
| 20260502060638 | 52 | 318 | 5.2 | 8.7 | 0.00 | 0.00 | 0.00 | 80 | 1012.5 |
| 20260502060538 | 52 | 325 | 5.2 | 8.7 | 0.00 | 0.00 | 0.00 | 80 | 1012.5 |
| 20260502060439 | 52 | 346 | 5.2 | 8.7 | 0.00 | 0.00 | 0.00 | 80 | 1012.5 |
| 20260502060334 | 52 | 317 | 5.2 | 8.7 | 0.00 | 0.00 | 0.00 | 80 | 1012.5 |
| 20260502060234 | 52 | 321 | 5.2 | 8.7 | 0.00 | 0.00 | 0.00 | 80 | 1012.5 |
| 20260502060134 | 52 | 288 | 5.2 | 8.7 | 0.00 | 0.00 | 0.00 | 80 | 1012.6 |
| 20260502060034 | 52 | 327 | 5.2 | 8.7 | 0.00 | 0.00 | 0.00 | 80 | 1012.6 |
| 20260502055935 | 52 | 299 | 4.3 | 8.7 | 0.00 | 0.00 | 0.00 | 81 | 1012.6 |
| 20260502055834 | 52 | 313 | 4.3 | 8.7 | 0.00 | 0.00 | 0.00 | 81 | 1012.6 |
| 20260502055735 | 52 | 300 | 4.3 | 8.7 | 0.00 | 0.00 | 0.00 | 81 | 1012.6 |
| 20260502055634 | 52 | 321 | 5.2 | 8.7 | 0.00 | 0.00 | 0.00 | 80 | 1012.5 |
| 20260502055536 | 52 | 325 | 5.2 | 8.7 | 0.00 | 0.00 | 0.00 | 80 | 1012.6 |
| 20260502055432 | 52 | 313 | 5.2 | 8.7 | 0.00 | 0.00 | 0.00 | 80 | 1012.6 |
| 20260502055333 | 52 | 315 | 5.2 | 8.7 | 0.00 | 0.00 | 0.00 | 80 | 1012.7 |
| 20260502055232 | 52 | 322 | 5.2 | 8.7 | 0.00 | 0.00 | 0.00 | 80 | 1012.8 |
| 20260502055132 | 52 | 305 | 5.2 | 8.7 | 0.00 | 0.00 | 0.00 | 80 | 1012.7 |
| 20260502055032 | 52 | 321 | 4.3 | 8.7 | 0.00 | 0.00 | 0.00 | 80 | 1012.7 |
| 20260502054934 | 52 | 306 | 4.3 | 8.7 | 0.00 | 0.00 | 0.00 | 80 | 1012.8 |
| 20260502054834 | 52 | 322 | 4.3 | 8.7 | 0.00 | 0.00 | 0.00 | 80 | 1012.8 |
| 20260502054731 | 52 | 286 | 4.3 | 8.7 | 0.00 | 0.00 | 0.00 | 80 | 1012.8 |
| 20260502054626 | 52 | 308 | 3.5 | 8.7 | 0.00 | 0.00 | 0.00 | 80 | 1012.8 |
| 20260502054528 | 52 | 314 | 3.5 | 8.7 | 0.00 | 0.00 | 0.00 | 81 | 1012.7 |
| 20260502054324 | 52 | 323 | 2.6 | 8.7 | 0.00 | 0.00 | 0.00 | 82 | 1012.8 |
| 20260502054225 | 52 | 313 | 2.6 | 8.7 | 0.00 | 0.00 | 0.00 | 82 | 1012.8 |
| 20260502054124 | 52 | 307 | 1.7 | 5.2 | 0.00 | 0.00 | 0.00 | 83 | 1012.8 |
| 20260502054025 | 52 | 313 | 1.7 | 5.2 | 0.00 | 0.00 | 0.00 | 83 | 1012.8 |
| 20260502053925 | 52 | 313 | 1.7 | 5.2 | 0.00 | 0.00 | 0.00 | 84 | 1012.8 |
| 20260502053825 | 52 | 275 | 1.7 | 5.2 | 0.00 | 0.00 | 0.00 | 84 | 1012.8 |
| 20260502053724 | 52 | 266 | 0.9 | 5.2 | 0.00 | 0.00 | 0.00 | 84 | 1012.8 |
| 20260502053624 | 52 | 279 | 0.9 | 2.6 | 0.00 | 0.00 | 0.00 | 84 | 1012.6 |
| 20260502053525 | 52 | 274 | 0.9 | 2.6 | 0.00 | 0.00 | 0.00 | 84 | 1012.7 |
| 20260502053420 | 52 | 274 | 0.9 | 2.6 | 0.00 | 0.00 | 0.00 | 84 | 1012.6 |
| 20260502053321 | 52 | 274 | 0.9 | 2.6 | 0.00 | 0.00 | 0.00 | 84 | 1012.6 |
| 20260502053221 | 52 | 277 | 0.9 | 1.7 | 0.00 | 0.00 | 0.00 | 84 | 1012.6 |
| 20260502053121 | 52 | 277 | 0.9 | 1.7 | 0.00 | 0.00 | 0.00 | 84 | 1012.6 |
| 20260502053021 | 52 | 277 | 0.9 | 1.7 | 0.00 | 0.00 | 0.00 | 84 | 1012.6 |
| 20260502052921 | 52 | 277 | 0.9 | 1.7 | 0.00 | 0.00 | 0.00 | 84 | 1012.7 |
| 20260502052819 | 52 | 277 | 0.0 | 1.7 | 0.00 | 0.00 | 0.00 | 83 | 1012.7 |
| 20260502052719 | 52 | 277 | 0.0 | 7.8 | 0.00 | 0.00 | 0.00 | 83 | 1012.7 |
| 20260502052618 | 52 | 277 | 0.9 | 7.8 | 0.00 | 0.00 | 0.00 | 83 | 1012.8 |
| 20260502052519 | 52 | 277 | 0.9 | 7.8 | 0.00 | 0.00 | 0.00 | 83 | 1012.8 |
| 20260502052419 | 52 | 278 | 0.9 | 7.8 | 0.00 | 0.00 | 0.00 | 83 | 1012.8 |
| 20260502052318 | 52 | 278 | 0.9 | 7.8 | 0.00 | 0.00 | 0.00 | 83 | 1012.8 |
| 20260502052218 | 52 | 278 | 1.7 | 7.8 | 0.00 | 0.00 | 0.00 | 83 | 1012.8 |
| 20260502052120 | 52 | 278 | 1.7 | 7.8 | 0.00 | 0.00 | 0.00 | 83 | 1012.8 |
| 20260502052018 | 52 | 278 | 2.6 | 7.8 | 0.00 | 0.00 | 0.00 | 83 | 1012.7 |
| 20260502051920 | 52 | 284 | 2.6 | 7.8 | 0.00 | 0.00 | 0.00 | 83 | 1012.8 |
| 20260502051818 | 52 | 284 | 3.5 | 7.8 | 0.00 | 0.00 | 0.00 | 83 | 1012.7 |
| 20260502051720 | 53 | 288 | 3.5 | 7.8 | 0.00 | 0.00 | 0.00 | 83 | 1012.8 |
| 20260502051619 | 53 | 291 | 4.3 | 7.8 | 0.00 | 0.00 | 0.00 | 83 | 1012.7 |
| 20260502051519 | 53 | 324 | 4.3 | 7.8 | 0.00 | 0.00 | 0.00 | 83 | 1012.7 |
| 20260502051419 | 53 | 298 | 4.3 | 7.8 | 0.00 | 0.00 | 0.00 | 83 | 1012.7 |
| 20260502051319 | 53 | 319 | 4.3 | 7.8 | 0.00 | 0.00 | 0.00 | 83 | 1012.7 |
| 20260502051218 | 53 | 332 | 4.3 | 7.8 | 0.00 | 0.00 | 0.00 | 83 | 1012.7 |
| 20260502051118 | 53 | 330 | 4.3 | 7.8 | 0.00 | 0.00 | 0.00 | 83 | 1012.6 |
| 20260502051020 | 53 | 302 | 4.3 | 7.8 | 0.00 | 0.00 | 0.00 | 83 | 1012.5 |
| 20260502050920 | 53 | 309 | 4.3 | 7.8 | 0.00 | 0.00 | 0.00 | 82 | 1012.6 |
| 20260502050818 | 53 | 317 | 4.3 | 7.8 | 0.00 | 0.00 | 0.00 | 82 | 1012.6 |
| 20260502050719 | 53 | 276 | 4.3 | 7.8 | 0.00 | 0.00 | 0.00 | 82 | 1012.6 |
| 20260502050619 | 53 | 302 | 4.3 | 7.8 | 0.00 | 0.00 | 0.00 | 82 | 1012.6 |
| 20260502050519 | 53 | 319 | 4.3 | 7.8 | 0.00 | 0.00 | 0.00 | 82 | 1012.6 |
| 20260502050418 | 53 | 308 | 4.3 | 7.8 | 0.00 | 0.00 | 0.00 | 82 | 1012.6 |
| 20260502050319 | 53 | 320 | 3.5 | 7.8 | 0.00 | 0.00 | 0.00 | 82 | 1012.6 |
| 20260502050219 | 53 | 314 | 3.5 | 7.8 | 0.00 | 0.00 | 0.00 | 82 | 1012.6 |
| 20260502050116 | 53 | 285 | 2.6 | 7.8 | 0.00 | 0.00 | 0.00 | 82 | 1012.6 |
| 20260502050016 | 53 | 318 | 2.6 | 7.8 | 0.00 | 0.00 | 0.00 | 82 | 1012.6 |
| 20260502045915 | 53 | 331 | 1.7 | 7.8 | 0.00 | 0.00 | 0.00 | 82 | 1012.6 |
| 20260502045814 | 53 | 317 | 1.7 | 7.0 | 0.00 | 0.00 | 0.00 | 81 | 1012.5 |
| 20260502045715 | 53 | 333 | 0.9 | 7.0 | 0.00 | 0.00 | 0.00 | 81 | 1012.6 |
| 20260502045614 | 53 | 350 | 0.0 | 7.0 | 0.00 | 0.00 | 0.00 | 81 | 1012.5 |
| 20260502045515 | 53 | 323 | 0.0 | 2.6 | 0.00 | 0.00 | 0.00 | 81 | 1012.6 |
| 20260502045415 | 53 | 177 | 0.0 | 2.6 | 0.00 | 0.00 | 0.00 | 81 | 1012.5 |
| 20260502045316 | 53 | 177 | 0.0 | 2.6 | 0.00 | 0.00 | 0.00 | 81 | 1012.5 |
| 20260502045216 | 53 | 177 | 0.0 | 2.6 | 0.00 | 0.00 | 0.00 | 81 | 1012.4 |
| 20260502045116 | 53 | 177 | 0.9 | 2.6 | 0.00 | 0.00 | 0.00 | 81 | 1012.4 |
| 20260502045014 | 53 | 177 | 0.9 | 2.6 | 0.00 | 0.00 | 0.00 | 81 | 1012.4 |
| 20260502044916 | 53 | 177 | 0.9 | 2.6 | 0.00 | 0.00 | 0.00 | 81 | 1012.4 |
| 20260502044814 | 53 | 177 | 0.9 | 2.6 | 0.00 | 0.00 | 0.00 | 81 | 1012.3 |
| 20260502044716 | 53 | 177 | 0.9 | 2.6 | 0.00 | 0.00 | 0.00 | 81 | 1012.4 |
| 20260502044614 | 53 | 177 | 0.9 | 2.6 | 0.00 | 0.00 | 0.00 | 81 | 1012.5 |
| 20260502044515 | 53 | 177 | 0.9 | 2.6 | 0.00 | 0.00 | 0.00 | 81 | 1012.4 |
| 20260502044414 | 53 | 177 | 0.9 | 2.6 | 0.00 | 0.00 | 0.00 | 81 | 1012.4 |
| 20260502044314 | 53 | 176 | 0.9 | 2.6 | 0.00 | 0.00 | 0.00 | 82 | 1012.4 |
| 20260502044214 | 53 | 176 | 0.9 | 2.6 | 0.00 | 0.00 | 0.00 | 81 | 1012.4 |
| 20260502044114 | 53 | 176 | 0.9 | 2.6 | 0.00 | 0.00 | 0.00 | 81 | 1012.4 |
| 20260502044014 | 53 | 176 | 0.9 | 2.6 | 0.00 | 0.00 | 0.00 | 81 | 1012.4 |
| 20260502043914 | 53 | 176 | 0.9 | 2.6 | 0.00 | 0.00 | 0.00 | 81 | 1012.4 |
| 20260502043814 | 53 | 176 | 0.9 | 2.6 | 0.00 | 0.00 | 0.00 | 81 | 1012.4 |
| 20260502043714 | 53 | 176 | 0.9 | 2.6 | 0.00 | 0.00 | 0.00 | 81 | 1012.4 |
| 20260502043616 | 53 | 176 | 0.9 | 2.6 | 0.00 | 0.00 | 0.00 | 82 | 1012.4 |
| 20260502043515 | 53 | 176 | 0.9 | 2.6 | 0.00 | 0.00 | 0.00 | 82 | 1012.4 |
| 20260502043415 | 53 | 176 | 0.9 | 2.6 | 0.00 | 0.00 | 0.00 | 81 | 1012.4 |
| 20260502043316 | 53 | 176 | 0.9 | 2.6 | 0.00 | 0.00 | 0.00 | 81 | 1012.5 |
| 20260502043215 | 53 | 176 | 0.9 | 2.6 | 0.00 | 0.00 | 0.00 | 81 | 1012.5 |
| 20260502043014 | 53 | 173 | 0.9 | 2.6 | 0.00 | 0.00 | 0.00 | 81 | 1012.5 |
| 20260502042916 | 53 | 173 | 0.9 | 2.6 | 0.00 | 0.00 | 0.00 | 81 | 1012.6 |
| 20260502042812 | 53 | 173 | 0.9 | 2.6 | 0.00 | 0.00 | 0.00 | 81 | 1012.6 |
| 20260502042711 | 53 | 173 | 0.9 | 2.6 | 0.00 | 0.00 | 0.00 | 81 | 1012.5 |
| 20260502042612 | 53 | 174 | 0.9 | 2.6 | 0.00 | 0.00 | 0.00 | 81 | 1012.5 |
| 20260502042511 | 53 | 173 | 0.9 | 2.6 | 0.00 | 0.00 | 0.00 | 81 | 1012.5 |
| 20260502042411 | 53 | 173 | 0.9 | 2.6 | 0.00 | 0.00 | 0.00 | 82 | 1012.5 |
| 20260502042310 | 53 | 173 | 0.9 | 2.6 | 0.00 | 0.00 | 0.00 | 82 | 1012.5 |
| 20260502042212 | 53 | 173 | 0.9 | 2.6 | 0.00 | 0.00 | 0.00 | 82 | 1012.5 |
| 20260502042110 | 53 | 173 | 0.9 | 2.6 | 0.00 | 0.00 | 0.00 | 81 | 1012.4 |
| 20260502042011 | 53 | 173 | 0.9 | 2.6 | 0.00 | 0.00 | 0.00 | 82 | 1012.4 |
| 20260502041910 | 53 | 173 | 0.9 | 1.7 | 0.00 | 0.00 | 0.00 | 82 | 1012.5 |
| 20260502041810 | 53 | 173 | 0.9 | 1.7 | 0.00 | 0.00 | 0.00 | 82 | 1012.4 |
| 20260502041711 | 53 | 173 | 0.9 | 1.7 | 0.00 | 0.00 | 0.00 | 82 | 1012.4 |
| 20260502041612 | 53 | 173 | 0.9 | 1.7 | 0.00 | 0.00 | 0.00 | 82 | 1012.5 |
| 20260502041510 | 53 | 173 | 0.9 | 2.6 | 0.00 | 0.00 | 0.00 | 82 | 1012.4 |
| 20260502041412 | 53 | 173 | 0.9 | 2.6 | 0.00 | 0.00 | 0.00 | 82 | 1012.5 |
| 20260502041312 | 53 | 173 | 0.9 | 2.6 | 0.00 | 0.00 | 0.00 | 82 | 1012.6 |
| 20260502041210 | 53 | 173 | 0.9 | 2.6 | 0.00 | 0.00 | 0.00 | 82 | 1012.4 |
| 20260502041111 | 53 | 173 | 0.9 | 2.6 | 0.00 | 0.00 | 0.00 | 82 | 1012.4 |
| 20260502041010 | 53 | 173 | 0.9 | 2.6 | 0.00 | 0.00 | 0.00 | 82 | 1012.5 |
| 20260502040911 | 53 | 173 | 0.9 | 2.6 | 0.00 | 0.00 | 0.00 | 82 | 1012.5 |
| 20260502040810 | 53 | 173 | 0.9 | 2.6 | 0.00 | 0.00 | 0.00 | 82 | 1012.4 |
| 20260502040710 | 53 | 173 | 0.9 | 2.6 | 0.00 | 0.00 | 0.00 | 82 | 1012.4 |
| 20260502040612 | 53 | 173 | 1.7 | 2.6 | 0.00 | 0.00 | 0.00 | 82 | 1012.4 |
| 20260502040510 | 53 | 173 | 0.9 | 2.6 | 0.00 | 0.00 | 0.00 | 82 | 1012.4 |
| 20260502040413 | 53 | 173 | 0.9 | 2.6 | 0.00 | 0.00 | 0.00 | 82 | 1012.4 |
| 20260502040311 | 53 | 173 | 0.9 | 2.6 | 0.00 | 0.00 | 0.00 | 82 | 1012.4 |
| 20260502040203 | 53 | 173 | 0.9 | 2.6 | 0.00 | 0.00 | 0.00 | 82 | 1012.4 |
| 20260502040101 | 53 | 173 | 0.9 | 3.5 | 0.00 | 0.00 | 0.00 | 82 | 1012.4 |
| 20260502040000 | 53 | 173 | 0.9 | 3.5 | 0.00 | 0.00 | 0.00 | 82 | 1012.6 |
| 20260502035902 | 53 | 173 | 0.9 | 4.3 | 0.00 | 0.00 | 0.00 | 82 | 1012.6 |
| 20260502035759 | 53 | 173 | 0.9 | 4.3 | 0.00 | 0.00 | 0.00 | 82 | 1012.5 |
| 20260502035654 | 53 | 173 | 0.9 | 4.3 | 0.00 | 0.00 | 0.00 | 82 | 1012.5 |
| 20260502035554 | 53 | 173 | 0.9 | 4.3 | 0.00 | 0.00 | 0.00 | 82 | 1012.6 |
| 20260502035454 | 53 | 173 | 1.7 | 4.3 | 0.00 | 0.00 | 0.00 | 82 | 1012.6 |
| 20260502035354 | 53 | 173 | 1.7 | 4.3 | 0.00 | 0.00 | 0.00 | 82 | 1012.6 |
| 20260502035252 | 53 | 171 | 1.7 | 4.3 | 0.00 | 0.00 | 0.00 | 82 | 1012.6 |
| 20260502035148 | 53 | 171 | 1.7 | 4.3 | 0.00 | 0.00 | 0.00 | 82 | 1012.7 |
| 20260502035045 | 53 | 171 | 1.7 | 4.3 | 0.00 | 0.00 | 0.00 | 82 | 1012.5 |
| 20260502034945 | 53 | 171 | 1.7 | 4.3 | 0.00 | 0.00 | 0.00 | 82 | 1012.5 |
| 20260502034842 | 53 | 178 | 1.7 | 4.3 | 0.00 | 0.00 | 0.00 | 82 | 1012.5 |
| 20260502034743 | 53 | 178 | 1.7 | 4.3 | 0.00 | 0.00 | 0.00 | 82 | 1012.5 |
| 20260502034637 | 53 | 159 | 1.7 | 5.2 | 0.00 | 0.00 | 0.00 | 82 | 1012.6 |
| 20260502034537 | 53 | 159 | 1.7 | 5.2 | 0.00 | 0.00 | 0.00 | 82 | 1012.5 |
| 20260502034436 | 53 | 159 | 1.7 | 5.2 | 0.00 | 0.00 | 0.00 | 82 | 1012.6 |
| 20260502034335 | 53 | 159 | 1.7 | 5.2 | 0.00 | 0.00 | 0.00 | 82 | 1012.5 |
| 20260502034234 | 53 | 159 | 1.7 | 5.2 | 0.00 | 0.00 | 0.00 | 82 | 1012.5 |
| 20260502034129 | 53 | 159 | 1.7 | 5.2 | 0.00 | 0.00 | 0.00 | 82 | 1012.5 |
| 20260502034026 | 53 | 159 | 1.7 | 5.2 | 0.00 | 0.00 | 0.00 | 82 | 1012.5 |
| 20260502033928 | 53 | 159 | 1.7 | 5.2 | 0.00 | 0.00 | 0.00 | 82 | 1012.6 |
| 20260502033825 | 53 | 149 | 1.7 | 5.2 | 0.00 | 0.00 | 0.00 | 82 | 1012.5 |
| 20260502033725 | 53 | 180 | 1.7 | 5.2 | 0.00 | 0.00 | 0.00 | 82 | 1012.5 |
| 20260502033621 | 53 | 178 | 1.7 | 4.3 | 0.00 | 0.00 | 0.00 | 82 | 1012.6 |
| 20260502033518 | 53 | 181 | 1.7 | 5.2 | 0.00 | 0.00 | 0.00 | 82 | 1012.5 |
| 20260502033420 | 53 | 181 | 1.7 | 5.2 | 0.00 | 0.00 | 0.00 | 82 | 1012.5 |
| 20260502033317 | 53 | 181 | 1.7 | 5.2 | 0.00 | 0.00 | 0.00 | 82 | 1012.6 |
| 20260502033217 | 53 | 178 | 1.7 | 5.2 | 0.00 | 0.00 | 0.00 | 82 | 1012.6 |
| 20260502033106 | 53 | 178 | 1.7 | 5.2 | 0.00 | 0.00 | 0.00 | 82 | 1012.7 |
| 20260502033008 | 53 | 178 | 1.7 | 5.2 | 0.00 | 0.00 | 0.00 | 82 | 1012.7 |
| 20260502032907 | 53 | 178 | 2.6 | 5.2 | 0.00 | 0.00 | 0.00 | 82 | 1012.8 |
| 20260502032806 | 53 | 171 | 2.6 | 5.2 | 0.00 | 0.00 | 0.00 | 82 | 1012.7 |
| 20260502032707 | 53 | 171 | 2.6 | 5.2 | 0.00 | 0.00 | 0.00 | 82 | 1012.6 |
| 20260502032600 | 53 | 178 | 2.6 | 5.2 | 0.00 | 0.00 | 0.00 | 82 | 1012.8 |
| 20260502032500 | 53 | 157 | 2.6 | 4.3 | 0.00 | 0.00 | 0.00 | 82 | 1012.8 |
| 20260502032402 | 53 | 157 | 2.6 | 4.3 | 0.00 | 0.00 | 0.00 | 82 | 1012.8 |
| 20260502032300 | 53 | 157 | 2.6 | 4.3 | 0.00 | 0.00 | 0.00 | 82 | 1012.7 |
| 20260502032202 | 53 | 177 | 2.6 | 4.3 | 0.00 | 0.00 | 0.00 | 82 | 1012.8 |
| 20260502032057 | 53 | 178 | 2.6 | 4.3 | 0.00 | 0.00 | 0.00 | 82 | 1012.7 |
| 20260502031957 | 53 | 178 | 2.6 | 5.2 | 0.00 | 0.00 | 0.00 | 82 | 1012.6 |
| 20260502031857 | 53 | 160 | 2.6 | 5.2 | 0.00 | 0.00 | 0.00 | 82 | 1012.7 |
| 20260502031756 | 53 | 165 | 1.7 | 5.2 | 0.00 | 0.00 | 0.00 | 82 | 1012.8 |
| 20260502031657 | 53 | 190 | 2.6 | 5.2 | 0.00 | 0.00 | 0.00 | 82 | 1012.8 |
| 20260502031557 | 53 | 191 | 2.6 | 5.2 | 0.00 | 0.00 | 0.00 | 82 | 1012.8 |
| 20260502031454 | 53 | 224 | 2.6 | 5.2 | 0.00 | 0.00 | 0.00 | 82 | 1012.8 |
| 20260502031355 | 53 | 151 | 1.7 | 5.2 | 0.00 | 0.00 | 0.00 | 82 | 1012.7 |
| 20260502031256 | 53 | 151 | 2.6 | 5.2 | 0.00 | 0.00 | 0.00 | 81 | 1012.8 |
| 20260502031155 | 53 | 151 | 2.6 | 5.2 | 0.00 | 0.00 | 0.00 | 81 | 1012.8 |
| 20260502031054 | 53 | 151 | 2.6 | 5.2 | 0.00 | 0.00 | 0.00 | 81 | 1012.8 |
| 20260502030956 | 53 | 153 | 2.6 | 4.3 | 0.00 | 0.00 | 0.00 | 81 | 1012.8 |
| 20260502030850 | 53 | 155 | 2.6 | 6.1 | 0.00 | 0.00 | 0.00 | 81 | 1012.9 |
| 20260502030750 | 53 | 155 | 2.6 | 6.1 | 0.00 | 0.00 | 0.00 | 81 | 1012.9 |
| 20260502030648 | 53 | 156 | 2.6 | 6.1 | 0.00 | 0.00 | 0.00 | 81 | 1012.9 |
| 20260502030550 | 53 | 134 | 2.6 | 6.1 | 0.00 | 0.00 | 0.00 | 81 | 1013.0 |
| 20260502030448 | 53 | 192 | 2.6 | 6.1 | 0.00 | 0.00 | 0.00 | 81 | 1012.9 |
| 20260502030348 | 53 | 165 | 2.6 | 6.1 | 0.00 | 0.00 | 0.00 | 81 | 1012.9 |
| 20260502030249 | 53 | 165 | 2.6 | 6.1 | 0.00 | 0.00 | 0.00 | 81 | 1013.0 |
| 20260502030149 | 53 | 164 | 2.6 | 6.1 | 0.00 | 0.00 | 0.00 | 81 | 1012.9 |
| 20260502030048 | 53 | 165 | 2.6 | 6.1 | 0.00 | 0.00 | 0.00 | 81 | 1013.0 |
| 20260502025948 | 53 | 165 | 1.7 | 6.1 | 0.00 | 0.00 | 0.00 | 81 | 1013.0 |
| 20260502025849 | 53 | 156 | 1.7 | 5.2 | 0.00 | 0.00 | 0.00 | 81 | 1013.0 |
| 20260502025748 | 54 | 157 | 1.7 | 5.2 | 0.00 | 0.00 | 0.00 | 81 | 1013.0 |
| 20260502025648 | 54 | 171 | 1.7 | 4.3 | 0.00 | 0.00 | 0.00 | 81 | 1013.0 |
| 20260502025548 | 54 | 172 | 1.7 | 4.3 | 0.00 | 0.00 | 0.00 | 81 | 1013.0 |
| 20260502025450 | 54 | 172 | 2.6 | 7.8 | 0.00 | 0.00 | 0.00 | 81 | 1013.0 |
| 20260502025348 | 54 | 172 | 2.6 | 7.8 | 0.00 | 0.00 | 0.00 | 80 | 1013.1 |
| 20260502025249 | 54 | 172 | 2.6 | 7.8 | 0.00 | 0.00 | 0.00 | 80 | 1013.0 |
| 20260502025149 | 54 | 172 | 2.6 | 7.8 | 0.00 | 0.00 | 0.00 | 80 | 1013.0 |
| 20260502025052 | 54 | 172 | 2.6 | 7.8 | 0.00 | 0.00 | 0.00 | 80 | 1013.0 |
| 20260502024944 | 54 | 173 | 2.6 | 7.8 | 0.00 | 0.00 | 0.00 | 80 | 1013.1 |
| 20260502024846 | 54 | 173 | 2.6 | 7.8 | 0.00 | 0.00 | 0.00 | 80 | 1013.1 |
| 20260502024744 | 54 | 175 | 2.6 | 7.8 | 0.00 | 0.00 | 0.00 | 80 | 1013.1 |
| 20260502024649 | 54 | 175 | 2.6 | 7.8 | 0.00 | 0.00 | 0.00 | 80 | 1013.1 |
| 20260502024542 | 54 | 174 | 1.7 | 7.8 | 0.00 | 0.00 | 0.00 | 80 | 1013.1 |
| 20260502024442 | 54 | 187 | 1.7 | 5.2 | 0.00 | 0.00 | 0.00 | 80 | 1013.1 |
| 20260502024343 | 54 | 162 | 1.7 | 5.2 | 0.00 | 0.00 | 0.00 | 80 | 1013.0 |
| 20260502024242 | 54 | 161 | 1.7 | 5.2 | 0.00 | 0.00 | 0.00 | 80 | 1013.1 |
| 20260502024143 | 54 | 164 | 0.9 | 5.2 | 0.00 | 0.00 | 0.00 | 80 | 1013.0 |
| 20260502024043 | 54 | 208 | 0.9 | 5.2 | 0.00 | 0.00 | 0.00 | 80 | 1013.0 |
| 20260502023942 | 54 | 211 | 0.9 | 3.5 | 0.00 | 0.00 | 0.00 | 79 | 1013.0 |
| 20260502023842 | 54 | 206 | 0.9 | 3.5 | 0.00 | 0.00 | 0.00 | 79 | 1013.0 |
| 20260502023743 | 54 | 206 | 0.9 | 3.5 | 0.00 | 0.00 | 0.00 | 79 | 1013.0 |
| 20260502023644 | 54 | 206 | 0.9 | 3.5 | 0.00 | 0.00 | 0.00 | 79 | 1013.0 |
| 20260502023544 | 54 | 206 | 1.7 | 7.8 | 0.00 | 0.00 | 0.00 | 79 | 1013.0 |
| 20260502023442 | 54 | 207 | 1.7 | 7.8 | 0.00 | 0.00 | 0.00 | 79 | 1012.9 |
| 20260502023344 | 54 | 207 | 1.7 | 7.8 | 0.00 | 0.00 | 0.00 | 79 | 1012.9 |
| 20260502023242 | 54 | 227 | 1.7 | 7.8 | 0.00 | 0.00 | 0.00 | 79 | 1012.8 |
| 20260502023143 | 54 | 259 | 2.6 | 7.8 | 0.00 | 0.00 | 0.00 | 79 | 1012.9 |
| 20260502023035 | 54 | 259 | 2.6 | 7.8 | 0.00 | 0.00 | 0.00 | 79 | 1012.9 |
| 20260502022934 | 54 | 238 | 2.6 | 7.8 | 0.00 | 0.00 | 0.00 | 78 | 1012.9 |
| 20260502022834 | 54 | 231 | 2.6 | 7.8 | 0.00 | 0.00 | 0.00 | 78 | 1012.8 |
| 20260502022735 | 54 | 231 | 2.6 | 7.8 | 0.00 | 0.00 | 0.00 | 78 | 1012.8 |
| 20260502022635 | 54 | 234 | 2.6 | 7.8 | 0.00 | 0.00 | 0.00 | 78 | 1012.8 |
| 20260502022536 | 54 | 178 | 2.6 | 7.8 | 0.00 | 0.00 | 0.00 | 78 | 1012.8 |
| 20260502022434 | 54 | 148 | 2.6 | 7.8 | 0.00 | 0.00 | 0.00 | 78 | 1012.7 |
| 20260502022336 | 54 | 190 | 1.7 | 7.8 | 0.00 | 0.00 | 0.00 | 78 | 1012.7 |
| 20260502022234 | 54 | 198 | 1.7 | 7.0 | 0.00 | 0.00 | 0.00 | 78 | 1012.7 |
| 20260502022134 | 54 | 163 | 1.7 | 7.8 | 0.00 | 0.00 | 0.00 | 78 | 1012.8 |
| 20260502022035 | 54 | 214 | 2.6 | 8.7 | 0.00 | 0.00 | 0.00 | 78 | 1012.8 |
| 20260502021935 | 54 | 214 | 2.6 | 8.7 | 0.00 | 0.00 | 0.00 | 78 | 1012.8 |
| 20260502021835 | 54 | 236 | 2.6 | 8.7 | 0.00 | 0.00 | 0.00 | 78 | 1012.8 |
| 20260502021736 | 54 | 154 | 2.6 | 8.7 | 0.00 | 0.00 | 0.00 | 77 | 1012.7 |
| 20260502021634 | 54 | 158 | 3.5 | 8.7 | 0.00 | 0.00 | 0.00 | 77 | 1012.9 |
| 20260502021535 | 54 | 232 | 2.6 | 8.7 | 0.00 | 0.00 | 0.00 | 77 | 1013.0 |
| 20260502021434 | 54 | 178 | 2.6 | 8.7 | 0.00 | 0.00 | 0.00 | 77 | 1012.8 |
| 20260502021334 | 55 | 188 | 3.5 | 8.7 | 0.00 | 0.00 | 0.00 | 77 | 1012.8 |
| 20260502021234 | 55 | 175 | 3.5 | 8.7 | 0.00 | 0.00 | 0.00 | 77 | 1012.8 |
| 20260502021135 | 54 | 149 | 3.5 | 8.7 | 0.00 | 0.00 | 0.00 | 77 | 1012.8 |
| 20260502021035 | 55 | 142 | 3.5 | 7.8 | 0.00 | 0.00 | 0.00 | 77 | 1012.8 |
| 20260502020934 | 55 | 200 | 2.6 | 7.8 | 0.00 | 0.00 | 0.00 | 77 | 1012.7 |
| 20260502020834 | 55 | 166 | 2.6 | 7.8 | 0.00 | 0.00 | 0.00 | 77 | 1012.7 |
| 20260502020734 | 55 | 184 | 2.6 | 7.8 | 0.00 | 0.00 | 0.00 | 77 | 1012.7 |
| 20260502020636 | 55 | 207 | 2.6 | 7.8 | 0.00 | 0.00 | 0.00 | 77 | 1012.8 |
| 20260502020535 | 55 | 150 | 2.6 | 7.0 | 0.00 | 0.00 | 0.00 | 76 | 1012.7 |